Wetterdaten: Mittwoch, 06.03.2019
Datum Zeit Temp. Aussen Temp. o. S. +5cm Feuchte Auss Luftdruck Regen Sonnenschein Regendauer Solar Windben Empfang
06.03.2019 00:00 5,6 C 5,0 C 4,4 C 87 % 1007,0 hPa 0,0 l/m 0 min 0 min 0 W/m 12,9 km/h (3 Bft) 97,87 %
06.03.2019 00:02 5,6 C 5,0 C 4,4 C 87 % 1006,9 hPa 0,0 l/m 0 min 0 min 0 W/m 19,3 km/h (3 Bft) 96,97 %
06.03.2019 00:04 5,6 C 5,0 C 4,4 C 88 % 1006,9 hPa 0,0 l/m 0 min 0 min 0 W/m 12,9 km/h (3 Bft) 97,87 %
06.03.2019 00:07 5,6 C 5,0 C 4,4 C 88 % 1006,9 hPa 0,0 l/m 0 min 0 min 0 W/m 12,9 km/h (3 Bft) 97,56 %
06.03.2019 00:08 5,6 C 5,0 C 4,4 C 88 % 1006,9 hPa 0,0 l/m 0 min 0 min 0 W/m 16,1 km/h (3 Bft) 91,67 %
06.03.2019 00:10 5,6 C 5,0 C 4,4 C 88 % 1006,9 hPa 0,0 l/m 0 min 0 min 0 W/m 9,7 km/h (2 Bft) 97,87 %
06.03.2019 00:12 5,6 C 5,0 C 4,4 C 88 % 1006,9 hPa 0,0 l/m 0 min 0 min 0 W/m 9,7 km/h (2 Bft) 97,83 %
06.03.2019 00:14 5,6 C 5,0 C 4,4 C 88 % 1006,8 hPa 0,0 l/m 0 min 0 min 0 W/m 12,9 km/h (3 Bft) 97,87 %
06.03.2019 00:16 5,6 C 5,0 C 4,4 C 88 % 1006,8 hPa 0,0 l/m 0 min 0 min 0 W/m 16,1 km/h (3 Bft) 97,87 %
06.03.2019 00:18 5,6 C 5,0 C 4,4 C 88 % 1006,8 hPa 0,0 l/m 0 min 0 min 0 W/m 12,9 km/h (3 Bft) 97,87 %
06.03.2019 00:20 5,6 C 5,0 C 4,4 C 88 % 1006,8 hPa 0,0 l/m 0 min 0 min 0 W/m 9,7 km/h (2 Bft) 97,87 %
06.03.2019 00:22 5,6 C 5,0 C 4,4 C 88 % 1006,8 hPa 0,0 l/m 0 min 0 min 0 W/m 9,7 km/h (2 Bft) 95,74 %
06.03.2019 00:24 5,6 C 5,0 C 4,4 C 88 % 1006,8 hPa 0,0 l/m 0 min 0 min 0 W/m 6,4 km/h (2 Bft) 97,87 %
06.03.2019 00:26 5,7 C 5,0 C 4,4 C 88 % 1006,8 hPa 0,0 l/m 0 min 0 min 0 W/m 9,7 km/h (2 Bft) 95,65 %
06.03.2019 00:28 5,7 C 5,0 C 4,4 C 88 % 1006,8 hPa 0,0 l/m 0 min 0 min 0 W/m 12,9 km/h (3 Bft) 97,87 %
06.03.2019 00:30 5,7 C 5,6 C 4,4 C 88 % 1006,8 hPa 0,0 l/m 0 min 0 min 0 W/m 9,7 km/h (2 Bft) 97,87 %
06.03.2019 00:32 5,7 C 5,6 C 4,4 C 88 % 1006,7 hPa 0,0 l/m 0 min 0 min 0 W/m 9,7 km/h (2 Bft) 97,87 %
06.03.2019 00:34 5,7 C 5,6 C 5,0 C 88 % 1006,7 hPa 0,0 l/m 0 min 0 min 0 W/m 12,9 km/h (3 Bft) 97,87 %
06.03.2019 00:36 5,7 C 5,6 C 5,0 C 88 % 1006,7 hPa 0,0 l/m 0 min 0 min 0 W/m 6,4 km/h (2 Bft) 98,28 %
06.03.2019 00:38 5,7 C 5,6 C 5,0 C 88 % 1006,7 hPa 0,0 l/m 0 min 0 min 0 W/m 9,7 km/h (2 Bft) 100,00 %
06.03.2019 00:40 5,7 C 5,6 C 5,0 C 88 % 1006,7 hPa 0,0 l/m 0 min 0 min 0 W/m 6,4 km/h (2 Bft) 97,87 %
06.03.2019 00:42 5,7 C 5,6 C 5,0 C 88 % 1006,8 hPa 0,0 l/m 0 min 0 min 0 W/m 12,9 km/h (3 Bft) 97,87 %
06.03.2019 00:44 5,8 C 5,6 C 5,0 C 88 % 1006,8 hPa 0,0 l/m 0 min 0 min 0 W/m 9,7 km/h (2 Bft) 97,87 %
06.03.2019 00:46 5,8 C 5,6 C 5,0 C 88 % 1006,7 hPa 0,0 l/m 0 min 0 min 0 W/m 12,9 km/h (3 Bft) 100,00 %
06.03.2019 00:48 5,8 C 5,6 C 5,0 C 88 % 1006,7 hPa 0,0 l/m 0 min 0 min 0 W/m 12,9 km/h (3 Bft) 100,00 %
06.03.2019 00:50 5,8 C 5,6 C 5,0 C 88 % 1006,6 hPa 0,0 l/m 0 min 0 min 0 W/m 12,9 km/h (3 Bft) 97,87 %
06.03.2019 00:52 5,8 C 5,6 C 5,0 C 89 % 1006,6 hPa 0,0 l/m 0 min 0 min 0 W/m 12,9 km/h (3 Bft) 97,87 %
06.03.2019 00:54 5,8 C 5,6 C 5,0 C 88 % 1006,6 hPa 0,0 l/m 0 min 0 min 0 W/m 6,4 km/h (2 Bft) 97,87 %
06.03.2019 00:56 5,8 C 5,6 C 5,0 C 88 % 1006,6 hPa 0,0 l/m 0 min 0 min 0 W/m 9,7 km/h (2 Bft) 95,74 %
06.03.2019 00:58 5,8 C 5,6 C 5,0 C 89 % 1006,6 hPa 0,0 l/m 0 min 0 min 0 W/m 12,9 km/h (3 Bft) 97,87 %
06.03.2019 01:00 5,9 C 5,6 C 5,0 C 89 % 1006,6 hPa 0,0 l/m 0 min 0 min 0 W/m 9,7 km/h (2 Bft) 97,83 %
06.03.2019 01:02 5,9 C 5,6 C 5,0 C 89 % 1006,6 hPa 0,0 l/m 0 min 0 min 0 W/m 9,7 km/h (2 Bft) 97,87 %
06.03.2019 01:04 5,9 C 5,6 C 5,0 C 89 % 1006,6 hPa 0,0 l/m 0 min 0 min 0 W/m 16,1 km/h (3 Bft) 97,87 %
06.03.2019 01:06 5,9 C 5,6 C 5,0 C 89 % 1006,6 hPa 0,0 l/m 0 min 2 min 0 W/m 12,9 km/h (3 Bft) 96,61 %
06.03.2019 01:08 5,9 C 5,0 C 4,4 C 89 % 1006,6 hPa 0,0 l/m 0 min 2 min 0 W/m 16,1 km/h (3 Bft) 97,14 %
06.03.2019 01:10 5,9 C 5,0 C 4,4 C 89 % 1006,5 hPa 0,0 l/m 0 min 2 min 0 W/m 16,1 km/h (3 Bft) 95,74 %
06.03.2019 01:12 6,0 C 5,0 C 4,4 C 89 % 1006,5 hPa 0,0 l/m 0 min 2 min 0 W/m 9,7 km/h (2 Bft) 93,48 %
06.03.2019 01:14 6,0 C 5,0 C 4,4 C 89 % 1006,5 hPa 0,0 l/m 0 min 2 min 0 W/m 19,3 km/h (3 Bft) 95,74 %
06.03.2019 01:16 6,0 C 5,0 C 4,4 C 89 % 1006,5 hPa 0,0 l/m 0 min 2 min 0 W/m 16,1 km/h (3 Bft) 95,74 %
06.03.2019 01:18 6,0 C 5,0 C 4,4 C 89 % 1006,4 hPa 0,0 l/m 0 min 2 min 0 W/m 12,9 km/h (3 Bft) 95,74 %
06.03.2019 01:20 6,0 C 4,4 C 4,4 C 89 % 1006,4 hPa 0,0 l/m 0 min 2 min 0 W/m 12,9 km/h (3 Bft) 97,87 %
06.03.2019 01:22 6,1 C 4,4 C 4,4 C 89 % 1006,4 hPa 0,0 l/m 0 min 2 min 0 W/m 16,1 km/h (3 Bft) 97,87 %
06.03.2019 01:24 6,1 C 4,4 C 3,9 C 89 % 1006,4 hPa 0,0 l/m 0 min 2 min 0 W/m 16,1 km/h (3 Bft) 95,65 %
06.03.2019 01:26 6,0 C 4,4 C 3,9 C 89 % 1006,4 hPa 0,0 l/m 0 min 2 min 0 W/m 16,1 km/h (3 Bft) 95,74 %
06.03.2019 01:28 6,1 C 4,4 C 3,9 C 90 % 1006,3 hPa 0,0 l/m 0 min 2 min 0 W/m 12,9 km/h (3 Bft) 95,74 %
06.03.2019 01:30 6,1 C 4,4 C 3,9 C 90 % 1006,3 hPa 0,0 l/m 0 min 2 min 0 W/m 16,1 km/h (3 Bft) 95,74 %
06.03.2019 01:32 6,1 C 4,4 C 3,9 C 90 % 1006,3 hPa 0,0 l/m 0 min 2 min 0 W/m 9,7 km/h (2 Bft) 95,74 %
06.03.2019 01:34 6,0 C 4,4 C 3,9 C 90 % 1006,3 hPa 0,0 l/m 0 min 2 min 0 W/m 12,9 km/h (3 Bft) 95,74 %
06.03.2019 01:36 6,0 C 4,4 C 3,9 C 90 % 1006,3 hPa 0,0 l/m 0 min 2 min 0 W/m 19,3 km/h (3 Bft) 94,83 %
06.03.2019 01:38 6,0 C 4,4 C 3,9 C 90 % 1006,3 hPa 0,0 l/m 0 min 0 min 0 W/m 16,1 km/h (3 Bft) 97,14 %
06.03.2019 01:40 6,0 C 4,4 C 3,9 C 90 % 1006,2 hPa 0,0 l/m 0 min 2 min 0 W/m 16,1 km/h (3 Bft) 93,62 %
06.03.2019 01:42 6,0 C 4,4 C 3,9 C 90 % 1006,2 hPa 0,0 l/m 0 min 0 min 0 W/m 6,4 km/h (2 Bft) 95,74 %
06.03.2019 01:44 6,0 C 4,4 C 3,9 C 90 % 1006,2 hPa 0,0 l/m 0 min 2 min 0 W/m 12,9 km/h (3 Bft) 93,62 %
06.03.2019 01:46 6,0 C 4,4 C 3,9 C 91 % 1006,1 hPa 0,0 l/m 0 min 0 min 0 W/m 6,4 km/h (2 Bft) 95,65 %
06.03.2019 01:48 6,0 C 4,4 C 3,9 C 91 % 1006,1 hPa 0,0 l/m 0 min 2 min 0 W/m 9,7 km/h (2 Bft) 95,74 %
06.03.2019 01:50 6,0 C 4,4 C 3,9 C 91 % 1006,0 hPa 0,2 l/m 0 min 0 min 0 W/m 6,4 km/h (2 Bft) 95,74 %
06.03.2019 01:52 6,0 C 4,4 C 4,4 C 91 % 1006,1 hPa 0,0 l/m 0 min 2 min 0 W/m 16,1 km/h (3 Bft) 97,87 %
06.03.2019 01:54 6,0 C 5,0 C 4,4 C 91 % 1006,1 hPa 0,0 l/m 0 min 0 min 0 W/m 9,7 km/h (2 Bft) 97,87 %
06.03.2019 01:56 6,0 C 5,0 C 4,4 C 91 % 1006,1 hPa 0,0 l/m 0 min 0 min 0 W/m 9,7 km/h (2 Bft) 97,87 %
06.03.2019 01:58 6,0 C 5,0 C 4,4 C 91 % 1006,1 hPa 0,0 l/m 0 min 0 min 0 W/m 9,7 km/h (2 Bft) 97,83 %
06.03.2019 02:00 6,0 C 5,0 C 4,4 C 91 % 1006,1 hPa 0,0 l/m 0 min 0 min 0 W/m 3,2 km/h (1 Bft) 93,62 %
06.03.2019 02:02 6,0 C 5,0 C 4,4 C 91 % 1006,1 hPa 0,0 l/m 0 min 2 min 0 W/m 3,2 km/h (1 Bft) 97,87 %
06.03.2019 02:04 6,0 C 5,0 C 4,4 C 92 % 1006,0 hPa 0,0 l/m 0 min 2 min 0 W/m 9,7 km/h (2 Bft) 97,87 %
06.03.2019 02:06 6,0 C 5,0 C 4,4 C 92 % 1006,0 hPa 0,0 l/m 0 min 2 min 0 W/m 16,1 km/h (3 Bft) 98,28 %
06.03.2019 02:08 6,0 C 5,0 C 4,4 C 92 % 1006,0 hPa 0,0 l/m 0 min 2 min 0 W/m 12,9 km/h (3 Bft) 97,22 %
06.03.2019 02:10 6,0 C 5,0 C 4,4 C 92 % 1006,1 hPa 0,0 l/m 0 min 2 min 0 W/m 6,4 km/h (2 Bft) 97,83 %
06.03.2019 02:12 6,0 C 5,0 C 4,4 C 92 % 1006,1 hPa 0,0 l/m 0 min 2 min 0 W/m 22,5 km/h (4 Bft) 100,00 %
06.03.2019 02:14 6,1 C 5,0 C 4,4 C 92 % 1006,1 hPa 0,0 l/m 0 min 2 min 0 W/m 9,7 km/h (2 Bft) 100,00 %
06.03.2019 02:16 6,1 C 5,0 C 4,4 C 92 % 1006,0 hPa 0,0 l/m 0 min 2 min 0 W/m 12,9 km/h (3 Bft) 100,00 %
06.03.2019 02:18 6,1 C 5,0 C 4,4 C 92 % 1006,0 hPa 0,0 l/m 0 min 2 min 0 W/m 19,3 km/h (3 Bft) 100,00 %
06.03.2019 02:20 6,1 C 5,0 C 4,4 C 92 % 1006,0 hPa 0,0 l/m 0 min 2 min 0 W/m 9,7 km/h (2 Bft) 97,87 %
06.03.2019 02:22 6,1 C 5,0 C 4,4 C 92 % 1006,0 hPa 0,0 l/m 0 min 2 min 0 W/m 12,9 km/h (3 Bft) 97,83 %
06.03.2019 02:24 6,1 C 5,0 C 4,4 C 92 % 1006,0 hPa 0,0 l/m 0 min 2 min 0 W/m 9,7 km/h (2 Bft) 97,87 %
06.03.2019 02:26 6,1 C 5,0 C 4,4 C 92 % 1005,9 hPa 0,0 l/m 0 min 2 min 0 W/m 19,3 km/h (3 Bft) 100,00 %
06.03.2019 02:28 6,1 C 5,0 C 4,4 C 92 % 1005,9 hPa 0,0 l/m 0 min 2 min 0 W/m 9,7 km/h (2 Bft) 100,00 %
06.03.2019 02:30 6,1 C 5,0 C 4,4 C 92 % 1005,8 hPa 0,0 l/m 0 min 2 min 0 W/m 12,9 km/h (3 Bft) 100,00 %
06.03.2019 02:32 6,1 C 5,0 C 4,4 C 92 % 1005,8 hPa 0,0 l/m 0 min 2 min 0 W/m 12,9 km/h (3 Bft) 97,87 %
06.03.2019 02:34 6,1 C 5,0 C 4,4 C 93 % 1005,8 hPa 0,0 l/m 0 min 2 min 0 W/m 12,9 km/h (3 Bft) 97,83 %
06.03.2019 02:36 6,1 C 5,0 C 4,4 C 93 % 1005,7 hPa 0,0 l/m 0 min 2 min 0 W/m 19,3 km/h (3 Bft) 96,61 %
06.03.2019 02:38 6,2 C 5,0 C 4,4 C 93 % 1005,6 hPa 0,0 l/m 0 min 0 min 0 W/m 12,9 km/h (3 Bft) 97,14 %
06.03.2019 02:40 6,2 C 5,0 C 4,4 C 93 % 1005,7 hPa 0,0 l/m 0 min 0 min 0 W/m 12,9 km/h (3 Bft) 97,87 %
06.03.2019 02:42 6,2 C 5,0 C 4,4 C 93 % 1005,5 hPa 0,0 l/m 0 min 2 min 0 W/m 16,1 km/h (3 Bft) 97,87 %
06.03.2019 02:44 6,2 C 5,0 C 4,4 C 93 % 1005,6 hPa 0,0 l/m 0 min 0 min 0 W/m 12,9 km/h (3 Bft) 95,74 %
06.03.2019 02:46 6,2 C 5,0 C 4,4 C 93 % 1005,5 hPa 0,0 l/m 0 min 0 min 0 W/m 16,1 km/h (3 Bft) 97,83 %
06.03.2019 02:48 6,2 C 5,0 C 4,4 C 93 % 1005,5 hPa 0,0 l/m 0 min 0 min 0 W/m 19,3 km/h (3 Bft) 97,87 %
06.03.2019 02:50 6,2 C 5,0 C 4,4 C 93 % 1005,5 hPa 0,0 l/m 0 min 0 min 0 W/m 12,9 km/h (3 Bft) 97,87 %
06.03.2019 02:52 6,2 C 5,0 C 4,4 C 93 % 1005,5 hPa 0,0 l/m 0 min 0 min 0 W/m 16,1 km/h (3 Bft) 97,87 %
06.03.2019 02:54 6,2 C 5,0 C 4,4 C 93 % 1005,5 hPa 0,0 l/m 0 min 0 min 0 W/m 16,1 km/h (3 Bft) 97,87 %
06.03.2019 02:56 6,2 C 5,0 C 4,4 C 93 % 1005,4 hPa 0,0 l/m 0 min 0 min 0 W/m 12,9 km/h (3 Bft) 97,83 %
06.03.2019 02:58 6,2 C 5,0 C 4,4 C 93 % 1005,3 hPa 0,0 l/m 0 min 0 min 0 W/m 16,1 km/h (3 Bft) 95,74 %
06.03.2019 03:00 6,2 C 5,0 C 4,4 C 93 % 1005,4 hPa 0,0 l/m 0 min 0 min 0 W/m 16,1 km/h (3 Bft) 97,87 %
06.03.2019 03:02 6,2 C 5,0 C 4,4 C 93 % 1005,3 hPa 0,0 l/m 0 min 0 min 0 W/m 16,1 km/h (3 Bft) 95,74 %
06.03.2019 03:04 6,2 C 5,0 C 4,4 C 93 % 1005,3 hPa 0,0 l/m 0 min 0 min 0 W/m 12,9 km/h (3 Bft) 97,87 %
06.03.2019 03:06 6,2 C 5,0 C 4,4 C 93 % 1005,3 hPa 0,0 l/m 0 min 0 min 0 W/m 16,1 km/h (3 Bft) 96,55 %
06.03.2019 03:08 6,2 C 5,6 C 4,4 C 93 % 1005,2 hPa 0,0 l/m 0 min 0 min 0 W/m 19,3 km/h (3 Bft) 94,29 %
06.03.2019 03:10 6,2 C 5,6 C 4,4 C 93 % 1005,1 hPa 0,0 l/m 0 min 0 min 0 W/m 25,7 km/h (4 Bft) 97,87 %
06.03.2019 03:12 6,2 C 5,6 C 4,4 C 94 % 1005,1 hPa 0,0 l/m 0 min 0 min 0 W/m 22,5 km/h (4 Bft) 97,87 %
06.03.2019 03:14 6,2 C 5,6 C 4,4 C 94 % 1005,1 hPa 0,0 l/m 0 min 2 min 0 W/m 16,1 km/h (3 Bft) 97,87 %
06.03.2019 03:16 6,2 C 5,6 C 5,0 C 94 % 1005,1 hPa 0,0 l/m 0 min 0 min 0 W/m 32,2 km/h (5 Bft) 97,87 %
06.03.2019 03:18 6,3 C 5,6 C 5,0 C 94 % 1005,1 hPa 0,0 l/m 0 min 0 min 0 W/m 19,3 km/h (3 Bft) 95,74 %
06.03.2019 03:20 6,3 C 5,6 C 5,0 C 94 % 1005,0 hPa 0,0 l/m 0 min 0 min 0 W/m 16,1 km/h (3 Bft) 97,87 %
06.03.2019 03:22 6,3 C 5,6 C 5,0 C 93 % 1004,9 hPa 0,0 l/m 0 min 0 min 0 W/m 16,1 km/h (3 Bft) 97,83 %
06.03.2019 03:24 6,3 C 5,6 C 5,0 C 93 % 1004,9 hPa 0,0 l/m 0 min 0 min 0 W/m 19,3 km/h (3 Bft) 100,00 %
06.03.2019 03:26 6,3 C 5,6 C 5,0 C 93 % 1004,9 hPa 0,0 l/m 0 min 0 min 0 W/m 22,5 km/h (4 Bft) 97,87 %
06.03.2019 03:28 6,3 C 5,6 C 5,0 C 93 % 1004,8 hPa 0,0 l/m 0 min 0 min 0 W/m 19,3 km/h (3 Bft) 100,00 %
06.03.2019 03:30 6,3 C 5,6 C 4,4 C 93 % 1004,8 hPa 0,0 l/m 0 min 0 min 0 W/m 9,7 km/h (2 Bft) 100,00 %
06.03.2019 03:32 6,3 C 5,6 C 4,4 C 93 % 1004,8 hPa 0,0 l/m 0 min 0 min 0 W/m 19,3 km/h (3 Bft) 93,48 %
06.03.2019 03:34 6,3 C 5,6 C 5,0 C 93 % 1004,7 hPa 0,0 l/m 0 min 0 min 0 W/m 16,1 km/h (3 Bft) 100,00 %
06.03.2019 03:36 6,3 C 5,6 C 5,0 C 93 % 1004,8 hPa 0,0 l/m 0 min 0 min 0 W/m 16,1 km/h (3 Bft) 98,31 %
06.03.2019 03:38 6,4 C 5,6 C 5,0 C 93 % 1004,7 hPa 0,0 l/m 0 min 0 min 0 W/m 22,5 km/h (4 Bft) 100,00 %
06.03.2019 03:40 6,4 C 5,6 C 5,0 C 93 % 1004,7 hPa 0,0 l/m 0 min 0 min 0 W/m 16,1 km/h (3 Bft) 97,87 %
06.03.2019 03:42 6,4 C 5,6 C 5,0 C 93 % 1004,7 hPa 0,0 l/m 0 min 0 min 0 W/m 19,3 km/h (3 Bft) 93,62 %
06.03.2019 03:44 6,4 C 5,6 C 5,0 C 93 % 1004,6 hPa 0,0 l/m 0 min 0 min 0 W/m 9,7 km/h (2 Bft) 100,00 %
06.03.2019 03:46 6,4 C 5,6 C 5,0 C 93 % 1004,6 hPa 0,0 l/m 0 min 0 min 0 W/m 22,5 km/h (4 Bft) 100,00 %
06.03.2019 03:48 6,4 C 5,6 C 5,0 C 93 % 1004,5 hPa 0,0 l/m 0 min 2 min 0 W/m 16,1 km/h (3 Bft) 97,87 %
06.03.2019 03:50 6,4 C 5,6 C 5,0 C 93 % 1004,5 hPa 0,0 l/m 0 min 0 min 0 W/m 16,1 km/h (3 Bft) 97,87 %
06.03.2019 03:52 6,4 C 5,6 C 5,0 C 93 % 1004,5 hPa 0,0 l/m 0 min 0 min 0 W/m 16,1 km/h (3 Bft) 97,87 %
06.03.2019 03:54 6,4 C 5,6 C 5,0 C 93 % 1004,5 hPa 0,0 l/m 0 min 0 min 0 W/m 19,3 km/h (3 Bft) 100,00 %
06.03.2019 03:56 6,4 C 5,6 C 5,0 C 93 % 1004,5 hPa 0,0 l/m 0 min 0 min 0 W/m 25,7 km/h (4 Bft) 100,00 %
06.03.2019 03:58 6,4 C 5,6 C 5,0 C 93 % 1004,5 hPa 0,0 l/m 0 min 0 min 0 W/m 9,7 km/h (2 Bft) 97,87 %
06.03.2019 04:00 6,4 C 5,6 C 5,0 C 93 % 1004,4 hPa 0,0 l/m 0 min 0 min 0 W/m 19,3 km/h (3 Bft) 97,87 %
06.03.2019 04:05 6,4 C 5,6 C 5,0 C 93 % 1004,4 hPa 0,0 l/m 0 min 0 min 0 W/m 25,7 km/h (4 Bft) 97,47 %
06.03.2019 04:06 6,4 C 5,6 C 5,0 C 93 % 1004,3 hPa 0,0 l/m 0 min 0 min 0 W/m 12,9 km/h (3 Bft) 95,65 %
06.03.2019 04:08 6,4 C 5,6 C 5,0 C 93 % 1004,2 hPa 0,0 l/m 0 min 0 min 0 W/m 22,5 km/h (4 Bft) 100,00 %
06.03.2019 04:10 6,4 C 5,6 C 5,0 C 93 % 1004,2 hPa 0,0 l/m 0 min 0 min 0 W/m 22,5 km/h (4 Bft) 97,87 %
06.03.2019 04:12 6,4 C 5,6 C 5,0 C 93 % 1004,1 hPa 0,0 l/m 0 min 0 min 0 W/m 22,5 km/h (4 Bft) 97,87 %
06.03.2019 04:14 6,4 C 5,6 C 5,0 C 93 % 1004,2 hPa 0,0 l/m 0 min 0 min 0 W/m 16,1 km/h (3 Bft) 95,74 %
06.03.2019 04:16 6,4 C 5,6 C 5,0 C 93 % 1004,2 hPa 0,0 l/m 0 min 0 min 0 W/m 19,3 km/h (3 Bft) 97,87 %
06.03.2019 04:18 6,4 C 5,6 C 5,0 C 93 % 1004,1 hPa 0,0 l/m 0 min 0 min 0 W/m 22,5 km/h (4 Bft) 97,83 %
06.03.2019 04:20 6,4 C 5,6 C 5,0 C 93 % 1004,1 hPa 0,0 l/m 0 min 0 min 0 W/m 19,3 km/h (3 Bft) 97,87 %
06.03.2019 04:22 6,4 C 5,6 C 5,0 C 93 % 1004,2 hPa 0,0 l/m 0 min 0 min 0 W/m 16,1 km/h (3 Bft) 95,74 %
06.03.2019 04:24 6,4 C 5,6 C 4,4 C 93 % 1004,2 hPa 0,0 l/m 0 min 0 min 0 W/m 16,1 km/h (3 Bft) 97,87 %
06.03.2019 04:26 6,4 C 5,6 C 5,0 C 93 % 1004,2 hPa 0,0 l/m 0 min 0 min 0 W/m 22,5 km/h (4 Bft) 97,87 %
06.03.2019 04:28 6,4 C 5,6 C 5,0 C 93 % 1004,2 hPa 0,0 l/m 0 min 0 min 0 W/m 19,3 km/h (3 Bft) 95,74 %
06.03.2019 04:30 6,4 C 5,6 C 5,0 C 93 % 1004,2 hPa 0,0 l/m 0 min 0 min 0 W/m 16,1 km/h (3 Bft) 95,65 %
06.03.2019 04:32 6,4 C 5,6 C 4,4 C 93 % 1004,2 hPa 0,0 l/m 0 min 0 min 0 W/m 22,5 km/h (4 Bft) 97,87 %
06.03.2019 04:34 6,4 C 5,6 C 4,4 C 93 % 1004,1 hPa 0,0 l/m 0 min 0 min 0 W/m 19,3 km/h (3 Bft) 93,62 %
06.03.2019 04:36 6,4 C 5,6 C 5,0 C 93 % 1004,1 hPa 0,0 l/m 0 min 0 min 0 W/m 22,5 km/h (4 Bft) 94,92 %
06.03.2019 04:38 6,4 C 5,6 C 4,4 C 93 % 1004,1 hPa 0,0 l/m 0 min 0 min 0 W/m 16,1 km/h (3 Bft) 97,14 %
06.03.2019 04:40 6,4 C 5,6 C 4,4 C 93 % 1004,0 hPa 0,0 l/m 0 min 0 min 0 W/m 16,1 km/h (3 Bft) 95,74 %
06.03.2019 04:42 6,4 C 5,6 C 4,4 C 93 % 1004,1 hPa 0,0 l/m 0 min 0 min 0 W/m 16,1 km/h (3 Bft) 95,65 %
06.03.2019 04:44 6,4 C 5,6 C 4,4 C 93 % 1004,0 hPa 0,0 l/m 0 min 0 min 0 W/m 16,1 km/h (3 Bft) 97,87 %
06.03.2019 04:46 6,4 C 5,6 C 5,0 C 93 % 1004,0 hPa 0,0 l/m 0 min 0 min 0 W/m 12,9 km/h (3 Bft) 97,87 %
06.03.2019 04:48 6,4 C 5,6 C 5,0 C 93 % 1003,9 hPa 0,0 l/m 0 min 0 min 0 W/m 22,5 km/h (4 Bft) 95,74 %
06.03.2019 04:50 6,4 C 5,6 C 5,0 C 94 % 1003,9 hPa 0,0 l/m 0 min 0 min 0 W/m 16,1 km/h (3 Bft) 97,87 %
06.03.2019 04:52 6,4 C 5,6 C 5,0 C 94 % 1003,8 hPa 0,0 l/m 0 min 0 min 0 W/m 19,3 km/h (3 Bft) 95,74 %
06.03.2019 04:54 6,4 C 5,6 C 5,0 C 94 % 1003,8 hPa 0,0 l/m 0 min 0 min 0 W/m 29,0 km/h (5 Bft) 97,83 %
06.03.2019 04:56 6,4 C 5,6 C 5,0 C 94 % 1003,8 hPa 0,0 l/m 0 min 0 min 0 W/m 12,9 km/h (3 Bft) 95,74 %
06.03.2019 04:58 6,4 C 5,6 C 5,0 C 94 % 1003,8 hPa 0,0 l/m 0 min 0 min 0 W/m 22,5 km/h (4 Bft) 97,87 %
06.03.2019 05:00 6,4 C 5,6 C 5,0 C 94 % 1003,8 hPa 0,0 l/m 0 min 0 min 0 W/m 16,1 km/h (3 Bft) 97,87 %
06.03.2019 05:02 6,4 C 5,6 C 5,0 C 94 % 1003,7 hPa 0,0 l/m 0 min 0 min 0 W/m 22,5 km/h (4 Bft) 97,87 %
06.03.2019 05:04 6,4 C 5,6 C 5,0 C 94 % 1003,7 hPa 0,0 l/m 0 min 0 min 0 W/m 25,7 km/h (4 Bft) 97,87 %
06.03.2019 05:05 6,4 C 5,6 C 5,0 C 94 % 1003,7 hPa 0,0 l/m 0 min 0 min 0 W/m 25,7 km/h (4 Bft) 100,00 %
06.03.2019 05:10 6,5 C 5,6 C 5,0 C 94 % 1003,7 hPa 0,0 l/m 0 min 0 min 0 W/m 25,7 km/h (4 Bft) 99,12 %
06.03.2019 05:12 6,5 C 5,6 C 5,0 C 94 % 1003,6 hPa 0,0 l/m 0 min 0 min 0 W/m 16,1 km/h (3 Bft) 97,06 %
06.03.2019 05:14 6,5 C 5,6 C 5,0 C 94 % 1003,6 hPa 0,0 l/m 0 min 0 min 0 W/m 16,1 km/h (3 Bft) 97,83 %
06.03.2019 05:19 6,5 C 5,6 C 5,0 C 94 % 1003,6 hPa 0,0 l/m 0 min 0 min 0 W/m 16,1 km/h (3 Bft) 96,83 %
06.03.2019 05:20 6,5 C 5,6 C 5,0 C 94 % 1003,6 hPa 0,0 l/m 0 min 0 min 0 W/m 12,9 km/h (3 Bft) 91,30 %
06.03.2019 05:22 6,5 C 5,6 C 5,0 C 94 % 1003,7 hPa 0,0 l/m 0 min 0 min 0 W/m 12,9 km/h (3 Bft) 95,74 %
06.03.2019 05:24 6,6 C 5,6 C 5,0 C 94 % 1003,6 hPa 0,0 l/m 0 min 0 min 0 W/m 19,3 km/h (3 Bft) 95,74 %
06.03.2019 05:26 6,5 C 5,6 C 5,0 C 94 % 1003,6 hPa 0,0 l/m 0 min 0 min 0 W/m 9,7 km/h (2 Bft) 95,74 %
06.03.2019 05:28 6,5 C 5,6 C 5,0 C 94 % 1003,6 hPa 0,0 l/m 0 min 0 min 0 W/m 12,9 km/h (3 Bft) 95,65 %
06.03.2019 05:30 6,5 C 5,6 C 5,0 C 94 % 1003,6 hPa 0,0 l/m 0 min 0 min 0 W/m 19,3 km/h (3 Bft) 95,74 %
06.03.2019 05:32 6,6 C 5,6 C 5,0 C 94 % 1003,5 hPa 0,0 l/m 0 min 0 min 0 W/m 19,3 km/h (3 Bft) 95,74 %
06.03.2019 05:34 6,6 C 5,6 C 5,0 C 94 % 1003,4 hPa 0,0 l/m 0 min 0 min 0 W/m 9,7 km/h (2 Bft) 93,62 %
06.03.2019 05:36 6,6 C 5,6 C 5,0 C 94 % 1003,4 hPa 0,0 l/m 0 min 0 min 0 W/m 12,9 km/h (3 Bft) 95,74 %
06.03.2019 05:38 6,6 C 5,6 C 5,0 C 94 % 1003,4 hPa 0,0 l/m 0 min 0 min 0 W/m 16,1 km/h (3 Bft) 95,65 %
06.03.2019 05:40 6,6 C 5,6 C 5,0 C 94 % 1003,4 hPa 0,0 l/m 0 min 0 min 0 W/m 6,4 km/h (2 Bft) 97,87 %
06.03.2019 05:42 6,6 C 5,6 C 5,0 C 94 % 1003,4 hPa 0,0 l/m 0 min 0 min 0 W/m 12,9 km/h (3 Bft) 97,87 %
06.03.2019 05:44 6,6 C 5,6 C 5,0 C 94 % 1003,3 hPa 0,0 l/m 0 min 0 min 0 W/m 12,9 km/h (3 Bft) 93,62 %
06.03.2019 05:46 6,6 C 6,1 C 5,0 C 94 % 1003,4 hPa 0,0 l/m 0 min 0 min 0 W/m 22,5 km/h (4 Bft) 97,87 %
06.03.2019 05:48 6,6 C 6,1 C 5,0 C 94 % 1003,4 hPa 0,0 l/m 0 min 0 min 0 W/m 12,9 km/h (3 Bft) 97,87 %
06.03.2019 05:50 6,6 C 6,1 C 5,0 C 94 % 1003,4 hPa 0,0 l/m 0 min 0 min 0 W/m 9,7 km/h (2 Bft) 97,83 %
06.03.2019 05:52 6,6 C 6,1 C 5,0 C 94 % 1003,4 hPa 0,0 l/m 0 min 0 min 0 W/m 9,7 km/h (2 Bft) 93,62 %
06.03.2019 05:54 6,7 C 6,1 C 5,0 C 94 % 1003,3 hPa 0,0 l/m 0 min 0 min 0 W/m 22,5 km/h (4 Bft) 97,87 %
06.03.2019 05:56 6,7 C 6,1 C 5,0 C 94 % 1003,2 hPa 0,0 l/m 0 min 0 min 0 W/m 19,3 km/h (3 Bft) 97,87 %
06.03.2019 05:58 6,7 C 6,1 C 5,0 C 94 % 1003,1 hPa 0,0 l/m 0 min 0 min 0 W/m 22,5 km/h (4 Bft) 97,87 %
06.03.2019 06:00 6,7 C 6,1 C 5,0 C 94 % 1003,2 hPa 0,0 l/m 0 min 0 min 0 W/m 16,1 km/h (3 Bft) 95,74 %
06.03.2019 06:02 6,7 C 6,1 C 5,0 C 94 % 1003,1 hPa 0,0 l/m 0 min 0 min 0 W/m 19,3 km/h (3 Bft) 97,83 %
06.03.2019 06:04 6,7 C 6,1 C 5,0 C 94 % 1003,1 hPa 0,0 l/m 0 min 0 min 0 W/m 22,5 km/h (4 Bft) 97,87 %
06.03.2019 06:07 6,7 C 6,1 C 5,6 C 94 % 1003,0 hPa 0,0 l/m 0 min 0 min 0 W/m 19,3 km/h (3 Bft) 100,00 %
06.03.2019 06:08 6,7 C 6,1 C 5,6 C 94 % 1003,0 hPa 0,0 l/m 0 min 0 min 0 W/m 19,3 km/h (3 Bft) 100,00 %
06.03.2019 06:10 6,7 C 6,1 C 5,6 C 94 % 1003,0 hPa 0,0 l/m 0 min 0 min 0 W/m 19,3 km/h (3 Bft) 100,00 %
06.03.2019 06:12 6,8 C 6,1 C 5,6 C 94 % 1003,0 hPa 0,0 l/m 0 min 0 min 0 W/m 9,7 km/h (2 Bft) 97,87 %
06.03.2019 06:14 6,8 C 6,1 C 5,6 C 94 % 1003,0 hPa 0,0 l/m 0 min 0 min 0 W/m 25,7 km/h (4 Bft) 100,00 %
06.03.2019 06:16 6,8 C 6,7 C 5,6 C 94 % 1003,0 hPa 0,0 l/m 0 min 0 min 0 W/m 35,4 km/h (5 Bft) 100,00 %
06.03.2019 06:18 6,8 C 6,7 C 5,6 C 94 % 1002,9 hPa 0,0 l/m 0 min 0 min 0 W/m 22,5 km/h (4 Bft) 100,00 %
06.03.2019 06:20 6,9 C 6,7 C 5,6 C 94 % 1002,9 hPa 0,0 l/m 0 min 0 min 0 W/m 22,5 km/h (4 Bft) 100,00 %
06.03.2019 06:22 6,9 C 6,7 C 5,6 C 94 % 1002,7 hPa 0,0 l/m 0 min 0 min 0 W/m 19,3 km/h (3 Bft) 97,87 %
06.03.2019 06:24 6,9 C 6,7 C 5,6 C 94 % 1002,7 hPa 0,0 l/m 0 min 0 min 0 W/m 19,3 km/h (3 Bft) 97,87 %
06.03.2019 06:26 6,9 C 6,7 C 5,6 C 94 % 1002,7 hPa 0,0 l/m 0 min 0 min 0 W/m 22,5 km/h (4 Bft) 97,83 %
06.03.2019 06:28 6,9 C 6,7 C 5,6 C 94 % 1002,7 hPa 0,0 l/m 0 min 0 min 0 W/m 25,7 km/h (4 Bft) 97,87 %
06.03.2019 06:30 6,9 C 6,7 C 5,6 C 94 % 1002,6 hPa 0,0 l/m 0 min 0 min 0 W/m 32,2 km/h (5 Bft) 97,87 %
06.03.2019 06:32 6,9 C 6,7 C 5,6 C 93 % 1002,6 hPa 0,0 l/m 0 min 0 min 0 W/m 25,7 km/h (4 Bft) 97,87 %
06.03.2019 06:34 6,9 C 6,7 C 5,6 C 93 % 1002,5 hPa 0,0 l/m 0 min 0 min 0 W/m 29,0 km/h (5 Bft) 100,00 %
06.03.2019 06:36 6,9 C 6,7 C 5,6 C 93 % 1002,5 hPa 0,0 l/m 0 min 0 min 0 W/m 12,9 km/h (3 Bft) 97,83 %
06.03.2019 06:38 6,9 C 6,7 C 5,6 C 93 % 1002,4 hPa 0,0 l/m 0 min 0 min 0 W/m 22,5 km/h (4 Bft) 97,87 %
06.03.2019 06:40 6,9 C 6,7 C 5,6 C 93 % 1002,4 hPa 0,0 l/m 0 min 0 min 0 W/m 19,3 km/h (3 Bft) 100,00 %
06.03.2019 06:42 6,9 C 6,7 C 5,6 C 93 % 1002,4 hPa 0,0 l/m 0 min 0 min 0 W/m 25,7 km/h (4 Bft) 97,87 %
06.03.2019 06:44 7,0 C 6,7 C 5,6 C 93 % 1002,3 hPa 0,0 l/m 0 min 0 min 0 W/m 22,5 km/h (4 Bft) 97,87 %
06.03.2019 06:46 7,0 C 6,7 C 5,6 C 93 % 1002,2 hPa 0,0 l/m 0 min 0 min 0 W/m 16,1 km/h (3 Bft) 97,87 %
06.03.2019 06:48 7,0 C 6,7 C 5,6 C 93 % 1002,2 hPa 0,0 l/m 0 min 0 min 0 W/m 19,3 km/h (3 Bft) 95,74 %
06.03.2019 06:50 7,0 C 6,7 C 5,6 C 93 % 1002,1 hPa 0,0 l/m 0 min 0 min 0 W/m 25,7 km/h (4 Bft) 97,83 %
06.03.2019 06:52 7,0 C 6,7 C 5,6 C 93 % 1002,0 hPa 0,0 l/m 0 min 0 min 0 W/m 19,3 km/h (3 Bft) 97,87 %
06.03.2019 06:54 7,1 C 6,7 C 6,1 C 93 % 1001,9 hPa 0,0 l/m 0 min 0 min 0 W/m 16,1 km/h (3 Bft) 95,74 %
06.03.2019 06:56 7,1 C 6,7 C 6,1 C 93 % 1001,9 hPa 0,0 l/m 0 min 0 min 0 W/m 29,0 km/h (5 Bft) 97,87 %
06.03.2019 06:58 7,1 C 6,7 C 6,1 C 93 % 1001,9 hPa 0,0 l/m 0 min 0 min 0 W/m 22,5 km/h (4 Bft) 97,87 %
06.03.2019 07:00 7,1 C 6,7 C 6,1 C 93 % 1001,8 hPa 0,0 l/m 0 min 0 min 0 W/m 35,4 km/h (5 Bft) 97,87 %
06.03.2019 07:02 7,1 C 6,7 C 6,1 C 93 % 1001,8 hPa 0,0 l/m 0 min 0 min 0 W/m 35,4 km/h (5 Bft) 95,65 %
06.03.2019 07:04 7,2 C 6,7 C 6,1 C 93 % 1001,8 hPa 0,0 l/m 0 min 0 min 0 W/m 29,0 km/h (5 Bft) 97,87 %
06.03.2019 07:06 7,2 C 6,7 C 6,1 C 93 % 1001,6 hPa 0,0 l/m 0 min 0 min 0 W/m 25,7 km/h (4 Bft) 95,74 %
06.03.2019 07:08 7,2 C 6,7 C 6,1 C 93 % 1001,5 hPa 0,0 l/m 0 min 0 min 0 W/m 19,3 km/h (3 Bft) 95,74 %
06.03.2019 07:10 7,2 C 6,7 C 6,1 C 93 % 1001,6 hPa 0,0 l/m 0 min 0 min 0 W/m 25,7 km/h (4 Bft) 97,87 %
06.03.2019 07:12 7,3 C 7,2 C 6,1 C 93 % 1001,5 hPa 0,0 l/m 0 min 0 min 0 W/m 29,0 km/h (5 Bft) 97,83 %
06.03.2019 07:14 7,3 C 7,2 C 6,7 C 93 % 1001,6 hPa 0,0 l/m 0 min 0 min 0 W/m 29,0 km/h (5 Bft) 97,87 %
06.03.2019 07:16 7,3 C 7,2 C 6,7 C 93 % 1001,5 hPa 0,0 l/m 0 min 0 min 0 W/m 29,0 km/h (5 Bft) 97,87 %
06.03.2019 07:18 7,3 C 7,2 C 6,1 C 93 % 1001,5 hPa 0,0 l/m 0 min 0 min 0 W/m 25,7 km/h (4 Bft) 97,87 %
06.03.2019 07:20 7,4 C 7,2 C 6,7 C 92 % 1001,5 hPa 0,0 l/m 0 min 0 min 0 W/m 25,7 km/h (4 Bft) 97,87 %
06.03.2019 07:22 7,4 C 7,2 C 6,1 C 92 % 1001,5 hPa 0,0 l/m 0 min 0 min 0 W/m 16,1 km/h (3 Bft) 97,87 %
06.03.2019 07:24 7,4 C 7,2 C 6,1 C 92 % 1001,6 hPa 0,0 l/m 0 min 0 min 0 W/m 22,5 km/h (4 Bft) 95,65 %
06.03.2019 07:26 7,4 C 7,2 C 6,7 C 92 % 1001,5 hPa 0,0 l/m 0 min 0 min 4 W/m 25,7 km/h (4 Bft) 97,87 %
06.03.2019 07:28 7,4 C 7,2 C 6,7 C 92 % 1001,5 hPa 0,0 l/m 0 min 0 min 5 W/m 22,5 km/h (4 Bft) 97,87 %
06.03.2019 07:30 7,4 C 7,2 C 6,7 C 92 % 1001,5 hPa 0,0 l/m 0 min 0 min 5 W/m 25,7 km/h (4 Bft) 97,87 %
06.03.2019 07:32 7,4 C 7,2 C 6,7 C 92 % 1001,5 hPa 0,0 l/m 0 min 0 min 7 W/m 22,5 km/h (4 Bft) 100,00 %
06.03.2019 07:34 7,4 C 7,2 C 6,7 C 92 % 1001,5 hPa 0,0 l/m 0 min 0 min 7 W/m 16,1 km/h (3 Bft) 100,00 %
06.03.2019 07:36 7,5 C 7,2 C 6,7 C 92 % 1001,5 hPa 0,0 l/m 0 min 0 min 8 W/m 29,0 km/h (5 Bft) 100,00 %
06.03.2019 07:38 7,5 C 7,2 C 6,7 C 92 % 1001,4 hPa 0,0 l/m 0 min 0 min 9 W/m 45,1 km/h (6 Bft) 100,00 %
06.03.2019 07:40 7,5 C 7,2 C 6,7 C 92 % 1001,5 hPa 0,0 l/m 0 min 0 min 10 W/m 35,4 km/h (5 Bft) 100,00 %
06.03.2019 07:42 7,5 C 7,2 C 6,7 C 91 % 1001,4 hPa 0,0 l/m 0 min 0 min 11 W/m 48,3 km/h (6 Bft) 100,00 %
06.03.2019 07:44 7,5 C 7,2 C 6,7 C 91 % 1001,3 hPa 0,0 l/m 0 min 0 min 12 W/m 25,7 km/h (4 Bft) 100,00 %
06.03.2019 07:46 7,5 C 7,2 C 6,7 C 91 % 1001,3 hPa 0,0 l/m 0 min 0 min 15 W/m 29,0 km/h (5 Bft) 97,87 %
06.03.2019 07:48 7,5 C 7,2 C 6,7 C 91 % 1001,3 hPa 0,0 l/m 0 min 0 min 18 W/m 25,7 km/h (4 Bft) 97,87 %
06.03.2019 07:50 7,5 C 7,2 C 6,7 C 91 % 1001,3 hPa 0,0 l/m 0 min 0 min 20 W/m 32,2 km/h (5 Bft) 100,00 %
06.03.2019 07:52 7,5 C 7,2 C 6,7 C 91 % 1001,1 hPa 0,0 l/m 0 min 0 min 24 W/m 35,4 km/h (5 Bft) 97,87 %
06.03.2019 07:54 7,6 C 7,2 C 6,7 C 91 % 1001,2 hPa 0,0 l/m 0 min 0 min 26 W/m 22,5 km/h (4 Bft) 100,00 %
06.03.2019 07:56 7,6 C 7,2 C 6,7 C 91 % 1001,1 hPa 0,0 l/m 0 min 0 min 30 W/m 19,3 km/h (3 Bft) 100,00 %
06.03.2019 07:58 7,6 C 7,2 C 6,7 C 91 % 1001,0 hPa 0,0 l/m 0 min 0 min 32 W/m 22,5 km/h (4 Bft) 95,74 %
06.03.2019 08:00 7,6 C 7,2 C 6,7 C 90 % 1001,0 hPa 0,0 l/m 0 min 0 min 33 W/m 16,1 km/h (3 Bft) 97,87 %
06.03.2019 08:02 7,6 C 7,2 C 6,7 C 90 % 1001,0 hPa 0,0 l/m 0 min 0 min 34 W/m 19,3 km/h (3 Bft) 93,48 %
06.03.2019 08:04 7,6 C 7,2 C 6,7 C 90 % 1000,9 hPa 0,0 l/m 0 min 0 min 34 W/m 29,0 km/h (5 Bft) 95,74 %
06.03.2019 08:06 7,6 C 7,2 C 6,7 C 90 % 1000,8 hPa 0,0 l/m 0 min 0 min 33 W/m 25,7 km/h (4 Bft) 94,92 %
06.03.2019 08:08 7,6 C 7,2 C 6,7 C 90 % 1000,8 hPa 0,0 l/m 0 min 0 min 29 W/m 32,2 km/h (5 Bft) 95,74 %
06.03.2019 08:10 7,6 C 7,2 C 6,7 C 90 % 1000,7 hPa 0,0 l/m 0 min 0 min 27 W/m 29,0 km/h (5 Bft) 94,29 %
06.03.2019 08:12 7,6 C 7,2 C 6,7 C 90 % 1000,6 hPa 0,0 l/m 0 min 0 min 25 W/m 22,5 km/h (4 Bft) 93,62 %
06.03.2019 08:14 7,6 C 7,2 C 6,7 C 90 % 1000,6 hPa 0,0 l/m 0 min 0 min 25 W/m 29,0 km/h (5 Bft) 93,48 %
06.03.2019 08:16 7,6 C 7,2 C 6,7 C 90 % 1000,7 hPa 0,0 l/m 0 min 0 min 26 W/m 25,7 km/h (4 Bft) 95,74 %
06.03.2019 08:18 7,6 C 7,2 C 6,7 C 90 % 1000,7 hPa 0,0 l/m 0 min 0 min 26 W/m 29,0 km/h (5 Bft) 95,74 %
06.03.2019 08:20 7,6 C 7,2 C 6,7 C 90 % 1000,7 hPa 0,0 l/m 0 min 0 min 26 W/m 22,5 km/h (4 Bft) 95,74 %
06.03.2019 08:22 7,6 C 7,2 C 6,7 C 90 % 1000,7 hPa 0,0 l/m 0 min 0 min 28 W/m 25,7 km/h (4 Bft) 93,62 %
06.03.2019 08:24 7,6 C 7,2 C 6,7 C 90 % 1000,7 hPa 0,0 l/m 0 min 0 min 33 W/m 29,0 km/h (5 Bft) 95,74 %
06.03.2019 08:26 7,6 C 7,2 C 6,7 C 90 % 1000,7 hPa 0,0 l/m 0 min 0 min 39 W/m 38,6 km/h (5 Bft) 95,65 %
06.03.2019 08:28 7,6 C 7,2 C 6,7 C 89 % 1000,7 hPa 0,0 l/m 0 min 0 min 44 W/m 22,5 km/h (4 Bft) 95,74 %
06.03.2019 08:30 7,6 C 7,2 C 6,7 C 89 % 1000,7 hPa 0,0 l/m 0 min 0 min 48 W/m 29,0 km/h (5 Bft) 95,74 %
06.03.2019 08:32 7,6 C 7,2 C 6,7 C 89 % 1000,6 hPa 0,0 l/m 0 min 0 min 51 W/m 35,4 km/h (5 Bft) 93,62 %
06.03.2019 08:34 7,6 C 7,2 C 6,7 C 89 % 1000,7 hPa 0,0 l/m 0 min 0 min 52 W/m 41,8 km/h (6 Bft) 95,74 %
06.03.2019 08:36 7,6 C 7,2 C 6,7 C 89 % 1000,7 hPa 0,0 l/m 0 min 0 min 57 W/m 25,7 km/h (4 Bft) 94,83 %
06.03.2019 08:38 7,6 C 7,2 C 6,7 C 89 % 1000,6 hPa 0,0 l/m 0 min 0 min 63 W/m 19,3 km/h (3 Bft) 97,14 %
06.03.2019 08:40 7,6 C 7,2 C 6,7 C 89 % 1000,5 hPa 0,0 l/m 0 min 0 min 70 W/m 48,3 km/h (6 Bft) 95,74 %
06.03.2019 08:42 7,6 C 7,2 C 6,7 C 89 % 1000,5 hPa 0,0 l/m 0 min 0 min 74 W/m 41,8 km/h (6 Bft) 97,87 %
06.03.2019 08:44 7,6 C 7,2 C 6,7 C 89 % 1000,5 hPa 0,0 l/m 0 min 0 min 76 W/m 22,5 km/h (4 Bft) 95,74 %
06.03.2019 08:46 7,6 C 7,2 C 6,7 C 89 % 1000,5 hPa 0,0 l/m 0 min 0 min 74 W/m 32,2 km/h (5 Bft) 95,74 %
06.03.2019 08:48 7,7 C 7,2 C 6,7 C 89 % 1000,4 hPa 0,0 l/m 0 min 0 min 70 W/m 25,7 km/h (4 Bft) 95,65 %
06.03.2019 08:50 7,7 C 7,2 C 6,7 C 89 % 1000,4 hPa 0,0 l/m 0 min 0 min 67 W/m 22,5 km/h (4 Bft) 97,87 %
06.03.2019 08:52 7,7 C 7,2 C 6,7 C 89 % 1000,5 hPa 0,0 l/m 0 min 0 min 70 W/m 25,7 km/h (4 Bft) 97,87 %
06.03.2019 08:54 7,7 C 7,2 C 6,7 C 89 % 1000,4 hPa 0,0 l/m 0 min 0 min 74 W/m 29,0 km/h (5 Bft) 97,87 %
06.03.2019 08:56 7,7 C 7,2 C 7,2 C 89 % 1000,2 hPa 0,0 l/m 0 min 0 min 77 W/m 16,1 km/h (3 Bft) 97,87 %
06.03.2019 08:58 7,7 C 7,8 C 7,2 C 89 % 1000,3 hPa 0,0 l/m 0 min 0 min 81 W/m 35,4 km/h (5 Bft) 100,00 %
06.03.2019 09:00 7,7 C 7,8 C 7,2 C 89 % 1000,2 hPa 0,0 l/m 0 min 0 min 84 W/m 29,0 km/h (5 Bft) 100,00 %
06.03.2019 09:02 7,7 C 7,8 C 7,2 C 88 % 1000,1 hPa 0,0 l/m 0 min 0 min 89 W/m 19,3 km/h (3 Bft) 100,00 %
06.03.2019 09:04 7,7 C 7,8 C 7,2 C 88 % 1000,1 hPa 0,0 l/m 0 min 0 min 93 W/m 29,0 km/h (5 Bft) 100,00 %
06.03.2019 09:06 7,8 C 7,8 C 7,2 C 88 % 1000,2 hPa 0,0 l/m 0 min 0 min 98 W/m 22,5 km/h (4 Bft) 100,00 %
06.03.2019 09:08 7,8 C 7,8 C 7,2 C 88 % 1000,1 hPa 0,0 l/m 0 min 0 min 106 W/m 22,5 km/h (4 Bft) 100,00 %
06.03.2019 09:10 7,8 C 7,8 C 7,2 C 88 % 1000,2 hPa 0,0 l/m 0 min 0 min 113 W/m 25,7 km/h (4 Bft) 100,00 %
06.03.2019 09:12 7,8 C 7,8 C 7,2 C 88 % 1000,1 hPa 0,0 l/m 0 min 0 min 123 W/m 25,7 km/h (4 Bft) 100,00 %
06.03.2019 09:14 7,9 C 8,3 C 7,2 C 88 % 1000,1 hPa 0,0 l/m 0 min 0 min 136 W/m 41,8 km/h (6 Bft) 97,87 %
06.03.2019 09:16 7,9 C 8,3 C 7,8 C 88 % 1000,1 hPa 0,0 l/m 0 min 0 min 148 W/m 32,2 km/h (5 Bft) 100,00 %
06.03.2019 09:18 7,9 C 8,3 C 7,8 C 88 % 1000,1 hPa 0,0 l/m 2 min 0 min 165 W/m 32,2 km/h (5 Bft) 97,87 %
06.03.2019 09:20 8,0 C 8,3 C 7,8 C 87 % 1000,0 hPa 0,0 l/m 2 min 0 min 176 W/m 38,6 km/h (5 Bft) 100,00 %
06.03.2019 09:22 8,1 C 8,9 C 7,8 C 87 % 1000,0 hPa 0,0 l/m 2 min 0 min 181 W/m 19,3 km/h (3 Bft) 100,00 %
06.03.2019 09:24 8,1 C 8,9 C 7,8 C 87 % 1000,1 hPa 0,0 l/m 2 min 0 min 186 W/m 25,7 km/h (4 Bft) 100,00 %
06.03.2019 09:26 8,1 C 8,9 C 8,3 C 87 % 1000,1 hPa 0,0 l/m 2 min 0 min 187 W/m 25,7 km/h (4 Bft) 97,87 %
06.03.2019 09:28 8,2 C 9,4 C 8,3 C 87 % 1000,0 hPa 0,0 l/m 2 min 0 min 186 W/m 25,7 km/h (4 Bft) 100,00 %
06.03.2019 09:30 8,3 C 8,9 C 8,3 C 87 % 1000,0 hPa 0,0 l/m 2 min 0 min 191 W/m 32,2 km/h (5 Bft) 97,87 %
06.03.2019 09:32 8,3 C 8,9 C 8,3 C 86 % 1000,1 hPa 0,0 l/m 2 min 0 min 178 W/m 41,8 km/h (6 Bft) 97,87 %
06.03.2019 09:34 8,4 C 8,9 C 8,3 C 86 % 1000,0 hPa 0,0 l/m 2 min 0 min 174 W/m 38,6 km/h (5 Bft) 100,00 %
06.03.2019 09:36 8,4 C 8,9 C 8,3 C 85 % 1000,0 hPa 0,0 l/m 0 min 0 min 162 W/m 25,7 km/h (4 Bft) 100,00 %
06.03.2019 09:38 8,5 C 8,9 C 8,3 C 85 % 1000,1 hPa 0,0 l/m 0 min 0 min 160 W/m 29,0 km/h (5 Bft) 100,00 %
06.03.2019 09:40 8,6 C 8,9 C 8,3 C 85 % 1000,0 hPa 0,0 l/m 0 min 0 min 159 W/m 32,2 km/h (5 Bft) 100,00 %
06.03.2019 09:42 8,6 C 8,9 C 8,3 C 85 % 999,9 hPa 0,0 l/m 0 min 0 min 150 W/m 35,4 km/h (5 Bft) 97,87 %
06.03.2019 09:44 8,7 C 8,9 C 8,3 C 84 % 1000,0 hPa 0,0 l/m 0 min 0 min 149 W/m 35,4 km/h (5 Bft) 97,87 %
06.03.2019 09:46 8,7 C 8,9 C 8,3 C 84 % 1000,0 hPa 0,0 l/m 0 min 0 min 155 W/m 25,7 km/h (4 Bft) 100,00 %
06.03.2019 09:48 8,7 C 8,9 C 8,9 C 84 % 1000,0 hPa 0,0 l/m 0 min 0 min 161 W/m 35,4 km/h (5 Bft) 100,00 %
06.03.2019 09:50 8,8 C 8,9 C 8,9 C 83 % 1000,0 hPa 0,0 l/m 0 min 0 min 153 W/m 25,7 km/h (4 Bft) 97,87 %
06.03.2019 09:52 8,8 C 8,9 C 8,9 C 83 % 999,9 hPa 0,0 l/m 0 min 0 min 139 W/m 38,6 km/h (5 Bft) 97,87 %
06.03.2019 09:54 8,9 C 8,9 C 8,3 C 83 % 999,9 hPa 0,0 l/m 0 min 0 min 128 W/m 35,4 km/h (5 Bft) 97,87 %
06.03.2019 09:56 8,9 C 8,9 C 8,3 C 83 % 999,9 hPa 0,0 l/m 0 min 0 min 131 W/m 29,0 km/h (5 Bft) 95,74 %
06.03.2019 09:58 8,9 C 8,9 C 8,9 C 82 % 999,8 hPa 0,0 l/m 0 min 0 min 139 W/m 41,8 km/h (6 Bft) 97,83 %
06.03.2019 10:00 9,0 C 9,4 C 8,9 C 82 % 999,8 hPa 0,0 l/m 0 min 0 min 146 W/m 35,4 km/h (5 Bft) 97,87 %
06.03.2019 10:02 9,0 C 9,4 C 8,9 C 82 % 999,7 hPa 0,0 l/m 0 min 0 min 152 W/m 29,0 km/h (5 Bft) 95,74 %
06.03.2019 10:04 9,1 C 9,4 C 8,9 C 82 % 999,7 hPa 0,0 l/m 0 min 0 min 157 W/m 38,6 km/h (5 Bft) 97,87 %
06.03.2019 10:06 9,1 C 9,4 C 8,9 C 81 % 999,6 hPa 0,0 l/m 0 min 0 min 172 W/m 25,7 km/h (4 Bft) 96,61 %
06.03.2019 10:08 9,2 C 9,4 C 8,9 C 81 % 999,6 hPa 0,0 l/m 0 min 0 min 176 W/m 29,0 km/h (5 Bft) 97,14 %
06.03.2019 10:10 9,2 C 9,4 C 8,9 C 81 % 999,6 hPa 0,0 l/m 0 min 0 min 182 W/m 38,6 km/h (5 Bft) 97,83 %
06.03.2019 10:12 9,3 C 9,4 C 8,9 C 81 % 999,5 hPa 0,0 l/m 0 min 0 min 190 W/m 35,4 km/h (5 Bft) 97,87 %
06.03.2019 10:14 9,3 C 9,4 C 9,4 C 81 % 999,3 hPa 0,0 l/m 0 min 0 min 188 W/m 45,1 km/h (6 Bft) 95,74 %
06.03.2019 10:16 9,3 C 10,0 C 9,4 C 81 % 999,3 hPa 0,0 l/m 0 min 0 min 188 W/m 41,8 km/h (6 Bft) 95,74 %
06.03.2019 10:18 9,4 C 10,0 C 9,4 C 80 % 999,2 hPa 0,0 l/m 0 min 0 min 197 W/m 38,6 km/h (5 Bft) 97,87 %
06.03.2019 10:20 9,4 C 10,0 C 9,4 C 80 % 999,2 hPa 0,0 l/m 0 min 0 min 200 W/m 38,6 km/h (5 Bft) 97,87 %
06.03.2019 10:22 9,4 C 10,0 C 9,4 C 80 % 999,1 hPa 0,0 l/m 0 min 0 min 207 W/m 35,4 km/h (5 Bft) 97,83 %
06.03.2019 10:24 9,5 C 10,0 C 9,4 C 79 % 999,0 hPa 0,0 l/m 2 min 0 min 228 W/m 32,2 km/h (5 Bft) 97,87 %
06.03.2019 10:26 9,6 C 10,6 C 9,4 C 79 % 999,1 hPa 0,0 l/m 2 min 0 min 237 W/m 32,2 km/h (5 Bft) 95,74 %
06.03.2019 10:28 9,7 C 10,6 C 10,0 C 79 % 999,0 hPa 0,0 l/m 2 min 0 min 238 W/m 32,2 km/h (5 Bft) 93,62 %
06.03.2019 10:30 9,7 C 10,6 C 10,0 C 79 % 999,0 hPa 0,0 l/m 2 min 0 min 243 W/m 32,2 km/h (5 Bft) 95,74 %
06.03.2019 10:32 9,8 C 10,6 C 10,0 C 79 % 998,9 hPa 0,0 l/m 2 min 0 min 231 W/m 29,0 km/h (5 Bft) 93,62 %
06.03.2019 10:34 9,8 C 10,6 C 10,0 C 78 % 999,0 hPa 0,0 l/m 2 min 0 min 227 W/m 32,2 km/h (5 Bft) 95,65 %
06.03.2019 10:36 9,9 C 10,6 C 10,0 C 78 % 999,0 hPa 0,0 l/m 2 min 0 min 236 W/m 35,4 km/h (5 Bft) 96,61 %
06.03.2019 10:38 10,0 C 11,1 C 10,0 C 78 % 999,1 hPa 0,0 l/m 2 min 0 min 269 W/m 25,7 km/h (4 Bft) 94,29 %
06.03.2019 10:40 10,1 C 11,1 C 10,0 C 77 % 999,0 hPa 0,0 l/m 2 min 0 min 281 W/m 41,8 km/h (6 Bft) 95,74 %
06.03.2019 10:42 10,1 C 11,1 C 10,0 C 77 % 999,0 hPa 0,0 l/m 2 min 0 min 275 W/m 38,6 km/h (5 Bft) 93,62 %
06.03.2019 10:44 10,2 C 11,1 C 10,6 C 77 % 999,0 hPa 0,0 l/m 2 min 0 min 277 W/m 29,0 km/h (5 Bft) 95,65 %
06.03.2019 10:46 10,3 C 11,7 C 10,6 C 77 % 999,0 hPa 0,0 l/m 2 min 0 min 265 W/m 41,8 km/h (6 Bft) 95,74 %
06.03.2019 10:48 10,3 C 11,1 C 10,6 C 76 % 998,9 hPa 0,0 l/m 2 min 0 min 253 W/m 32,2 km/h (5 Bft) 95,74 %
06.03.2019 10:50 10,4 C 11,1 C 10,6 C 76 % 999,0 hPa 0,0 l/m 2 min 0 min 243 W/m 38,6 km/h (5 Bft) 93,62 %
06.03.2019 10:52 10,4 C 11,1 C 10,6 C 76 % 999,0 hPa 0,0 l/m 0 min 0 min 229 W/m 29,0 km/h (5 Bft) 95,74 %
06.03.2019 10:54 10,5 C 11,1 C 10,6 C 76 % 999,0 hPa 0,0 l/m 0 min 0 min 193 W/m 35,4 km/h (5 Bft) 97,87 %
06.03.2019 10:56 10,6 C 10,6 C 10,0 C 76 % 998,9 hPa 0,0 l/m 0 min 0 min 154 W/m 35,4 km/h (5 Bft) 97,83 %
06.03.2019 10:58 10,6 C 10,6 C 10,0 C 75 % 998,8 hPa 0,0 l/m 0 min 0 min 151 W/m 41,8 km/h (6 Bft) 95,74 %
06.03.2019 11:00 10,6 C 10,6 C 10,0 C 75 % 998,7 hPa 0,0 l/m 0 min 0 min 157 W/m 32,2 km/h (5 Bft) 97,87 %
06.03.2019 11:02 10,6 C 10,6 C 10,0 C 74 % 998,8 hPa 0,0 l/m 0 min 0 min 165 W/m 38,6 km/h (5 Bft) 97,87 %
06.03.2019 11:04 10,7 C 11,1 C 10,6 C 74 % 998,8 hPa 0,0 l/m 0 min 0 min 183 W/m 29,0 km/h (5 Bft) 97,87 %
06.03.2019 11:06 10,7 C 11,1 C 10,6 C 74 % 998,7 hPa 0,0 l/m 0 min 0 min 192 W/m 25,7 km/h (4 Bft) 95,74 %
06.03.2019 11:08 10,8 C 11,1 C 10,6 C 74 % 998,7 hPa 0,0 l/m 0 min 0 min 189 W/m 35,4 km/h (5 Bft) 95,65 %
06.03.2019 11:10 10,8 C 10,6 C 10,0 C 73 % 998,6 hPa 0,0 l/m 0 min 0 min 197 W/m 54,7 km/h (7 Bft) 97,87 %
06.03.2019 11:12 10,8 C 11,1 C 10,6 C 73 % 998,7 hPa 0,0 l/m 0 min 0 min 202 W/m 35,4 km/h (5 Bft) 97,87 %
06.03.2019 11:14 10,9 C 11,1 C 10,6 C 73 % 998,6 hPa 0,0 l/m 0 min 0 min 196 W/m 35,4 km/h (5 Bft) 95,74 %
06.03.2019 11:16 10,9 C 11,1 C 10,6 C 73 % 998,6 hPa 0,0 l/m 0 min 0 min 192 W/m 45,1 km/h (6 Bft) 100,00 %
06.03.2019 11:18 11,0 C 11,1 C 10,6 C 73 % 998,6 hPa 0,0 l/m 0 min 0 min 190 W/m 29,0 km/h (5 Bft) 95,74 %
06.03.2019 11:20 11,0 C 11,1 C 10,6 C 73 % 998,6 hPa 0,0 l/m 0 min 0 min 196 W/m 35,4 km/h (5 Bft) 97,83 %
06.03.2019 11:22 11,1 C 11,7 C 10,6 C 73 % 998,7 hPa 0,0 l/m 0 min 0 min 205 W/m 29,0 km/h (5 Bft) 95,74 %
06.03.2019 11:24 11,1 C 11,7 C 11,1 C 73 % 998,7 hPa 0,0 l/m 0 min 0 min 220 W/m 25,7 km/h (4 Bft) 97,87 %
06.03.2019 11:26 11,1 C 11,7 C 11,1 C 72 % 998,7 hPa 0,0 l/m 0 min 0 min 238 W/m 29,0 km/h (5 Bft) 95,74 %
06.03.2019 11:28 11,2 C 11,7 C 11,1 C 73 % 998,7 hPa 0,0 l/m 2 min 0 min 271 W/m 35,4 km/h (5 Bft) 97,87 %
06.03.2019 11:30 11,2 C 12,2 C 11,7 C 73 % 998,7 hPa 0,0 l/m 2 min 0 min 315 W/m 41,8 km/h (6 Bft) 97,87 %
06.03.2019 11:32 11,3 C 12,8 C 11,7 C 73 % 998,7 hPa 0,0 l/m 2 min 0 min 364 W/m 35,4 km/h (5 Bft) 97,83 %
06.03.2019 11:34 11,3 C 13,3 C 11,7 C 73 % 998,6 hPa 0,0 l/m 2 min 0 min 380 W/m 29,0 km/h (5 Bft) 97,87 %
06.03.2019 11:36 11,4 C 13,3 C 12,2 C 73 % 998,7 hPa 0,0 l/m 2 min 0 min 350 W/m 25,7 km/h (4 Bft) 98,31 %
06.03.2019 11:38 11,5 C 13,3 C 12,2 C 73 % 998,7 hPa 0,0 l/m 2 min 0 min 305 W/m 22,5 km/h (4 Bft) 94,29 %
06.03.2019 11:40 11,6 C 12,8 C 12,2 C 72 % 998,6 hPa 0,0 l/m 2 min 0 min 262 W/m 25,7 km/h (4 Bft) 97,87 %
06.03.2019 11:42 11,7 C 12,8 C 11,7 C 72 % 998,6 hPa 0,0 l/m 2 min 0 min 266 W/m 29,0 km/h (5 Bft) 97,87 %
06.03.2019 11:44 11,7 C 12,8 C 12,2 C 71 % 998,5 hPa 0,0 l/m 2 min 0 min 292 W/m 32,2 km/h (5 Bft) 97,83 %
06.03.2019 11:46 11,8 C 12,8 C 12,2 C 71 % 998,5 hPa 0,0 l/m 2 min 0 min 305 W/m 32,2 km/h (5 Bft) 95,74 %
06.03.2019 11:48 11,8 C 12,2 C 11,7 C 71 % 998,4 hPa 0,0 l/m 0 min 0 min 259 W/m 32,2 km/h (5 Bft) 97,87 %
06.03.2019 11:50 11,9 C 12,2 C 11,7 C 71 % 998,4 hPa 0,0 l/m 0 min 0 min 211 W/m 32,2 km/h (5 Bft) 97,87 %
06.03.2019 11:52 11,9 C 12,2 C 11,7 C 70 % 998,3 hPa 0,0 l/m 0 min 0 min 182 W/m 35,4 km/h (5 Bft) 97,87 %
06.03.2019 11:54 11,9 C 11,7 C 11,7 C 70 % 998,3 hPa 0,0 l/m 0 min 2 min 183 W/m 32,2 km/h (5 Bft) 97,87 %
06.03.2019 11:56 11,9 C 12,2 C 11,7 C 69 % 998,2 hPa 0,0 l/m 0 min 2 min 196 W/m 25,7 km/h (4 Bft) 97,83 %
06.03.2019 11:58 11,9 C 12,2 C 11,7 C 70 % 998,3 hPa 0,0 l/m 0 min 0 min 211 W/m 25,7 km/h (4 Bft) 97,87 %
06.03.2019 12:00 11,9 C 12,2 C 11,7 C 70 % 998,2 hPa 0,0 l/m 0 min 0 min 199 W/m 29,0 km/h (5 Bft) 100,00 %
06.03.2019 12:02 11,9 C 12,2 C 11,7 C 70 % 998,1 hPa 0,0 l/m 0 min 0 min 182 W/m 25,7 km/h (4 Bft) 100,00 %
06.03.2019 12:04 11,9 C 12,2 C 11,7 C 70 % 998,2 hPa 0,0 l/m 0 min 0 min 179 W/m 22,5 km/h (4 Bft) 97,87 %
06.03.2019 12:07 12,0 C 12,2 C 11,7 C 71 % 998,2 hPa 0,0 l/m 0 min 0 min 177 W/m 22,5 km/h (4 Bft) 100,00 %
06.03.2019 12:08 12,0 C 12,2 C 11,7 C 70 % 998,2 hPa 0,0 l/m 0 min 0 min 174 W/m 25,7 km/h (4 Bft) 100,00 %
06.03.2019 12:10 12,0 C 12,2 C 11,7 C 70 % 998,1 hPa 0,0 l/m 0 min 0 min 180 W/m 35,4 km/h (5 Bft) 97,87 %
06.03.2019 12:12 12,0 C 12,2 C 11,7 C 70 % 998,1 hPa 0,0 l/m 0 min 0 min 196 W/m 29,0 km/h (5 Bft) 95,74 %
06.03.2019 12:14 12,0 C 12,2 C 11,7 C 70 % 998,1 hPa 0,0 l/m 0 min 0 min 214 W/m 25,7 km/h (4 Bft) 95,74 %
06.03.2019 12:16 12,0 C 12,2 C 11,7 C 70 % 998,1 hPa 0,0 l/m 0 min 0 min 250 W/m 32,2 km/h (5 Bft) 100,00 %
06.03.2019 12:18 12,0 C 12,8 C 12,2 C 70 % 998,1 hPa 0,0 l/m 2 min 0 min 279 W/m 29,0 km/h (5 Bft) 100,00 %
06.03.2019 12:20 12,1 C 12,8 C 12,2 C 71 % 998,0 hPa 0,0 l/m 2 min 0 min 278 W/m 35,4 km/h (5 Bft) 95,65 %
06.03.2019 12:22 12,1 C 12,8 C 12,2 C 70 % 998,0 hPa 0,0 l/m 0 min 0 min 256 W/m 19,3 km/h (3 Bft) 85,11 %
06.03.2019 12:24 12,1 C 12,8 C 12,2 C 70 % 997,9 hPa 0,0 l/m 0 min 0 min 257 W/m 32,2 km/h (5 Bft) 95,74 %
06.03.2019 12:26 12,1 C 12,2 C 12,2 C 70 % 997,8 hPa 0,0 l/m 0 min 0 min 245 W/m 38,6 km/h (5 Bft) 93,62 %
06.03.2019 12:28 12,1 C 12,2 C 12,2 C 69 % 997,8 hPa 0,0 l/m 0 min 0 min 225 W/m 32,2 km/h (5 Bft) 91,49 %
06.03.2019 12:30 12,1 C 12,2 C 12,2 C 69 % 997,7 hPa 0,0 l/m 0 min 0 min 222 W/m 29,0 km/h (5 Bft) 91,49 %
06.03.2019 12:32 12,1 C 12,8 C 12,2 C 70 % 997,7 hPa 0,0 l/m 0 min 0 min 239 W/m 32,2 km/h (5 Bft) 100,00 %
06.03.2019 12:34 12,1 C 12,2 C 12,2 C 69 % 997,7 hPa 0,0 l/m 0 min 0 min 264 W/m 29,0 km/h (5 Bft) 100,00 %
06.03.2019 12:36 12,1 C 12,2 C 12,2 C 70 % 997,6 hPa 0,0 l/m 0 min 0 min 257 W/m 29,0 km/h (5 Bft) 100,00 %
06.03.2019 12:38 12,1 C 12,8 C 12,2 C 70 % 997,5 hPa 0,0 l/m 0 min 0 min 250 W/m 29,0 km/h (5 Bft) 100,00 %
06.03.2019 12:40 12,1 C 12,8 C 12,2 C 70 % 997,5 hPa 0,0 l/m 2 min 0 min 287 W/m 35,4 km/h (5 Bft) 100,00 %
06.03.2019 12:42 12,1 C 12,8 C 12,2 C 69 % 997,4 hPa 0,0 l/m 2 min 0 min 300 W/m 29,0 km/h (5 Bft) 100,00 %
06.03.2019 12:44 12,1 C 12,8 C 12,2 C 70 % 997,4 hPa 0,0 l/m 2 min 0 min 286 W/m 22,5 km/h (4 Bft) 100,00 %
06.03.2019 12:46 12,1 C 12,2 C 12,2 C 69 % 997,4 hPa 0,0 l/m 0 min 0 min 259 W/m 38,6 km/h (5 Bft) 100,00 %
06.03.2019 12:48 12,1 C 12,2 C 12,2 C 69 % 997,4 hPa 0,0 l/m 0 min 0 min 240 W/m 29,0 km/h (5 Bft) 100,00 %
06.03.2019 12:50 12,1 C 12,2 C 12,2 C 69 % 997,3 hPa 0,0 l/m 0 min 0 min 240 W/m 32,2 km/h (5 Bft) 97,83 %
06.03.2019 12:52 12,1 C 12,2 C 12,2 C 69 % 997,3 hPa 0,0 l/m 0 min 0 min 243 W/m 25,7 km/h (4 Bft) 97,87 %
06.03.2019 12:54 12,1 C 12,2 C 12,2 C 70 % 997,3 hPa 0,0 l/m 0 min 2 min 239 W/m 22,5 km/h (4 Bft) 95,74 %
06.03.2019 12:56 12,1 C 12,2 C 12,2 C 70 % 997,2 hPa 0,0 l/m 0 min 0 min 246 W/m 32,2 km/h (5 Bft) 93,62 %
06.03.2019 12:58 12,1 C 12,2 C 12,2 C 70 % 997,1 hPa 0,0 l/m 0 min 0 min 251 W/m 29,0 km/h (5 Bft) 95,74 %
06.03.2019 13:00 12,1 C 12,2 C 12,2 C 70 % 997,2 hPa 0,0 l/m 0 min 0 min 241 W/m 38,6 km/h (5 Bft) 95,74 %
06.03.2019 13:02 12,1 C 12,2 C 12,2 C 70 % 997,0 hPa 0,0 l/m 0 min 0 min 254 W/m 38,6 km/h (5 Bft) 93,48 %
06.03.2019 13:04 12,1 C 12,8 C 12,2 C 69 % 997,0 hPa 0,0 l/m 2 min 0 min 310 W/m 38,6 km/h (5 Bft) 95,74 %
06.03.2019 13:06 12,1 C 13,3 C 12,8 C 70 % 997,1 hPa 0,0 l/m 2 min 0 min 369 W/m 32,2 km/h (5 Bft) 93,62 %
06.03.2019 13:08 12,2 C 13,3 C 13,3 C 70 % 997,1 hPa 0,0 l/m 2 min 0 min 433 W/m 38,6 km/h (5 Bft) 97,87 %
06.03.2019 13:10 12,2 C 13,9 C 13,3 C 69 % 997,0 hPa 0,0 l/m 2 min 0 min 470 W/m 35,4 km/h (5 Bft) 97,87 %
06.03.2019 13:12 12,3 C 13,3 C 12,8 C 69 % 996,9 hPa 0,0 l/m 2 min 0 min 326 W/m 45,1 km/h (6 Bft) 97,83 %
06.03.2019 13:14 12,3 C 12,8 C 12,8 C 69 % 996,9 hPa 0,0 l/m 0 min 0 min 267 W/m 38,6 km/h (5 Bft) 95,74 %
06.03.2019 13:16 12,4 C 12,8 C 12,8 C 69 % 996,9 hPa 0,0 l/m 0 min 0 min 261 W/m 35,4 km/h (5 Bft) 95,74 %
06.03.2019 13:18 12,4 C 12,8 C 12,2 C 69 % 996,8 hPa 0,0 l/m 0 min 0 min 253 W/m 38,6 km/h (5 Bft) 95,74 %
06.03.2019 13:20 12,4 C 12,8 C 12,2 C 69 % 996,8 hPa 0,0 l/m 0 min 0 min 240 W/m 38,6 km/h (5 Bft) 91,49 %
06.03.2019 13:22 12,4 C 12,2 C 12,2 C 68 % 996,7 hPa 0,0 l/m 0 min 0 min 233 W/m 51,5 km/h (7 Bft) 93,62 %
06.03.2019 13:24 12,4 C 12,2 C 12,2 C 69 % 996,7 hPa 0,0 l/m 0 min 0 min 234 W/m 29,0 km/h (5 Bft) 97,83 %
06.03.2019 13:26 12,3 C 12,2 C 12,2 C 69 % 996,6 hPa 0,0 l/m 0 min 0 min 230 W/m 35,4 km/h (5 Bft) 95,74 %
06.03.2019 13:28 12,3 C 12,2 C 11,7 C 68 % 996,5 hPa 0,0 l/m 0 min 0 min 208 W/m 48,3 km/h (6 Bft) 95,74 %
06.03.2019 13:30 12,3 C 11,7 C 11,7 C 69 % 996,6 hPa 0,0 l/m 0 min 0 min 190 W/m 41,8 km/h (6 Bft) 93,62 %
06.03.2019 13:32 12,3 C 11,7 C 11,1 C 69 % 996,5 hPa 0,0 l/m 0 min 0 min 175 W/m 45,1 km/h (6 Bft) 95,74 %
06.03.2019 13:34 12,2 C 11,7 C 11,1 C 69 % 996,5 hPa 0,0 l/m 0 min 2 min 148 W/m 41,8 km/h (6 Bft) 97,87 %
06.03.2019 13:36 12,1 C 11,7 C 11,1 C 69 % 996,4 hPa 0,0 l/m 0 min 0 min 126 W/m 29,0 km/h (5 Bft) 95,65 %
06.03.2019 13:38 12,1 C 11,7 C 11,1 C 69 % 996,5 hPa 0,0 l/m 0 min 0 min 123 W/m 48,3 km/h (6 Bft) 97,87 %
06.03.2019 13:40 12,0 C 11,7 C 11,1 C 70 % 996,4 hPa 0,0 l/m 0 min 0 min 130 W/m 25,7 km/h (4 Bft) 95,74 %
06.03.2019 13:42 12,0 C 11,7 C 11,1 C 70 % 996,5 hPa 0,0 l/m 0 min 2 min 137 W/m 41,8 km/h (6 Bft) 97,87 %
06.03.2019 13:44 11,9 C 11,7 C 11,1 C 70 % 996,4 hPa 0,0 l/m 0 min 0 min 150 W/m 29,0 km/h (5 Bft) 97,87 %
06.03.2019 13:46 11,9 C 11,7 C 11,1 C 70 % 996,4 hPa 0,0 l/m 0 min 0 min 154 W/m 38,6 km/h (5 Bft) 97,87 %
06.03.2019 13:48 11,9 C 11,7 C 11,7 C 70 % 996,4 hPa 0,0 l/m 0 min 0 min 150 W/m 35,4 km/h (5 Bft) 97,83 %
06.03.2019 13:50 11,9 C 11,7 C 11,1 C 70 % 996,4 hPa 0,0 l/m 0 min 0 min 135 W/m 35,4 km/h (5 Bft) 95,74 %
06.03.2019 13:52 11,9 C 11,7 C 11,1 C 70 % 996,3 hPa 0,0 l/m 0 min 0 min 122 W/m 35,4 km/h (5 Bft) 97,87 %
06.03.2019 13:54 11,9 C 11,7 C 11,1 C 70 % 996,2 hPa 0,0 l/m 0 min 0 min 128 W/m 32,2 km/h (5 Bft) 95,74 %
06.03.2019 13:56 11,9 C 11,1 C 10,6 C 71 % 996,3 hPa 0,0 l/m 0 min 2 min 135 W/m 25,7 km/h (4 Bft) 97,87 %
06.03.2019 13:58 11,9 C 10,6 C 10,0 C 72 % 996,3 hPa 0,2 l/m 0 min 2 min 147 W/m 35,4 km/h (5 Bft) 97,87 %
06.03.2019 14:00 11,9 C 10,6 C 9,4 C 72 % 996,3 hPa 0,0 l/m 0 min 2 min 159 W/m 29,0 km/h (5 Bft) 95,65 %
06.03.2019 14:02 11,9 C 10,6 C 9,4 C 73 % 996,3 hPa 0,0 l/m 0 min 2 min 164 W/m 29,0 km/h (5 Bft) 97,87 %
06.03.2019 14:04 11,9 C 11,1 C 10,0 C 72 % 996,2 hPa 0,0 l/m 0 min 2 min 169 W/m 38,6 km/h (5 Bft) 97,87 %
06.03.2019 14:06 11,9 C 11,7 C 10,6 C 73 % 996,2 hPa 0,0 l/m 0 min 2 min 164 W/m 29,0 km/h (5 Bft) 100,00 %
06.03.2019 14:08 11,9 C 11,7 C 10,6 C 73 % 996,2 hPa 0,0 l/m 0 min 2 min 169 W/m 25,7 km/h (4 Bft) 100,00 %
06.03.2019 14:10 11,9 C 11,7 C 10,6 C 73 % 996,1 hPa 0,0 l/m 0 min 2 min 170 W/m 32,2 km/h (5 Bft) 97,87 %
06.03.2019 14:12 11,9 C 11,7 C 11,1 C 73 % 996,0 hPa 0,0 l/m 0 min 2 min 160 W/m 32,2 km/h (5 Bft) 100,00 %
06.03.2019 14:14 11,9 C 11,7 C 11,1 C 73 % 996,0 hPa 0,0 l/m 0 min 2 min 155 W/m 35,4 km/h (5 Bft) 97,87 %
06.03.2019 14:16 11,9 C 11,7 C 11,1 C 73 % 995,9 hPa 0,0 l/m 0 min 2 min 154 W/m 32,2 km/h (5 Bft) 95,74 %
06.03.2019 14:18 11,9 C 11,7 C 11,7 C 72 % 995,8 hPa 0,0 l/m 0 min 0 min 155 W/m 22,5 km/h (4 Bft) 97,87 %
06.03.2019 14:20 11,9 C 12,2 C 11,7 C 72 % 995,8 hPa 0,0 l/m 0 min 0 min 153 W/m 29,0 km/h (5 Bft) 97,87 %
06.03.2019 14:22 11,9 C 12,2 C 11,7 C 72 % 995,8 hPa 0,0 l/m 0 min 0 min 147 W/m 32,2 km/h (5 Bft) 97,87 %
06.03.2019 14:24 11,9 C 12,2 C 11,7 C 72 % 995,7 hPa 0,0 l/m 0 min 0 min 127 W/m 25,7 km/h (4 Bft) 97,83 %
06.03.2019 14:26 12,0 C 12,2 C 11,7 C 72 % 995,6 hPa 0,0 l/m 0 min 0 min 105 W/m 41,8 km/h (6 Bft) 97,87 %
06.03.2019 14:28 12,0 C 11,7 C 11,7 C 71 % 995,7 hPa 0,0 l/m 0 min 0 min 99 W/m 32,2 km/h (5 Bft) 97,87 %
06.03.2019 14:30 12,0 C 11,7 C 11,7 C 71 % 995,8 hPa 0,0 l/m 0 min 0 min 98 W/m 48,3 km/h (6 Bft) 95,74 %
06.03.2019 14:32 12,1 C 11,7 C 11,7 C 71 % 995,8 hPa 0,0 l/m 0 min 0 min 102 W/m 32,2 km/h (5 Bft) 95,74 %
06.03.2019 14:34 12,1 C 12,2 C 11,7 C 71 % 995,8 hPa 0,0 l/m 0 min 0 min 107 W/m 29,0 km/h (5 Bft) 97,83 %
06.03.2019 14:36 12,1 C 12,2 C 11,7 C 71 % 995,9 hPa 0,0 l/m 0 min 0 min 100 W/m 29,0 km/h (5 Bft) 97,87 %
06.03.2019 14:38 12,1 C 12,2 C 11,7 C 71 % 995,9 hPa 0,0 l/m 0 min 0 min 87 W/m 22,5 km/h (4 Bft) 95,74 %
06.03.2019 14:40 12,2 C 12,2 C 11,7 C 71 % 995,9 hPa 0,0 l/m 0 min 0 min 86 W/m 25,7 km/h (4 Bft) 97,87 %
06.03.2019 14:42 12,2 C 12,2 C 11,7 C 70 % 995,8 hPa 0,0 l/m 0 min 0 min 98 W/m 25,7 km/h (4 Bft) 95,74 %
06.03.2019 14:44 12,2 C 12,2 C 11,7 C 71 % 995,8 hPa 0,0 l/m 0 min 0 min 104 W/m 32,2 km/h (5 Bft) 97,87 %
06.03.2019 14:46 12,2 C 12,2 C 11,7 C 71 % 995,7 hPa 0,0 l/m 0 min 0 min 102 W/m 32,2 km/h (5 Bft) 97,83 %
06.03.2019 14:48 12,2 C 12,2 C 11,7 C 71 % 995,8 hPa 0,0 l/m 0 min 0 min 104 W/m 38,6 km/h (5 Bft) 97,87 %
06.03.2019 14:50 12,2 C 12,2 C 11,7 C 71 % 995,8 hPa 0,0 l/m 0 min 0 min 100 W/m 25,7 km/h (4 Bft) 97,87 %
06.03.2019 14:52 12,2 C 12,2 C 11,7 C 71 % 995,9 hPa 0,0 l/m 0 min 0 min 93 W/m 29,0 km/h (5 Bft) 97,87 %
06.03.2019 14:54 12,3 C 12,2 C 11,1 C 71 % 995,8 hPa 0,0 l/m 0 min 0 min 84 W/m 29,0 km/h (5 Bft) 97,87 %
06.03.2019 14:56 12,3 C 11,7 C 11,1 C 71 % 995,9 hPa 0,0 l/m 0 min 0 min 77 W/m 29,0 km/h (5 Bft) 97,87 %
06.03.2019 14:58 12,3 C 11,7 C 11,1 C 71 % 995,9 hPa 0,0 l/m 0 min 2 min 69 W/m 45,1 km/h (6 Bft) 97,83 %
06.03.2019 15:00 12,3 C 11,1 C 10,6 C 72 % 995,8 hPa 0,0 l/m 0 min 2 min 69 W/m 32,2 km/h (5 Bft) 97,87 %
06.03.2019 15:02 12,2 C 11,1 C 10,6 C 72 % 995,8 hPa 0,0 l/m 0 min 2 min 77 W/m 29,0 km/h (5 Bft) 97,87 %
06.03.2019 15:04 12,2 C 11,1 C 10,0 C 73 % 995,9 hPa 0,0 l/m 0 min 2 min 80 W/m 29,0 km/h (5 Bft) 97,87 %
06.03.2019 15:06 12,2 C 10,6 C 10,0 C 74 % 995,7 hPa 0,0 l/m 0 min 2 min 73 W/m 29,0 km/h (5 Bft) 97,87 %
06.03.2019 15:08 12,2 C 10,0 C 9,4 C 74 % 995,7 hPa 0,0 l/m 0 min 2 min 66 W/m 32,2 km/h (5 Bft) 97,87 %
06.03.2019 15:10 12,1 C 9,4 C 9,4 C 75 % 995,7 hPa 0,0 l/m 0 min 2 min 61 W/m 22,5 km/h (4 Bft) 97,83 %
06.03.2019 15:12 12,1 C 9,4 C 8,9 C 76 % 995,7 hPa 0,0 l/m 0 min 2 min 60 W/m 25,7 km/h (4 Bft) 100,00 %
06.03.2019 15:14 12,0 C 9,4 C 8,9 C 76 % 995,7 hPa 0,0 l/m 0 min 2 min 54 W/m 25,7 km/h (4 Bft) 100,00 %
06.03.2019 15:16 11,9 C 9,4 C 8,9 C 76 % 995,8 hPa 0,0 l/m 0 min 2 min 46 W/m 22,5 km/h (4 Bft) 100,00 %
06.03.2019 15:18 11,8 C 9,4 C 8,9 C 76 % 995,8 hPa 0,0 l/m 0 min 2 min 42 W/m 35,4 km/h (5 Bft) 97,87 %
06.03.2019 15:20 11,8 C 9,4 C 8,9 C 77 % 995,8 hPa 0,0 l/m 0 min 2 min 39 W/m 25,7 km/h (4 Bft) 100,00 %
06.03.2019 15:22 11,7 C 9,4 C 8,9 C 77 % 995,8 hPa 0,0 l/m 0 min 2 min 37 W/m 19,3 km/h (3 Bft) 100,00 %
06.03.2019 15:24 11,7 C 8,9 C 8,3 C 77 % 995,8 hPa 0,0 l/m 0 min 2 min 34 W/m 19,3 km/h (3 Bft) 100,00 %
06.03.2019 15:26 11,7 C 8,9 C 8,3 C 78 % 995,9 hPa 0,0 l/m 0 min 2 min 31 W/m 22,5 km/h (4 Bft) 100,00 %
06.03.2019 15:28 11,6 C 8,3 C 8,3 C 78 % 995,9 hPa 0,0 l/m 0 min 2 min 32 W/m 29,0 km/h (5 Bft) 97,87 %
06.03.2019 15:30 11,6 C 8,3 C 8,3 C 79 % 995,8 hPa 0,2 l/m 0 min 2 min 35 W/m 22,5 km/h (4 Bft) 100,00 %
06.03.2019 15:32 11,5 C 8,3 C 8,3 C 79 % 995,9 hPa 0,0 l/m 0 min 2 min 46 W/m 16,1 km/h (3 Bft) 95,74 %
06.03.2019 15:34 11,4 C 8,3 C 8,3 C 79 % 995,9 hPa 0,0 l/m 0 min 2 min 60 W/m 22,5 km/h (4 Bft) 97,83 %
06.03.2019 15:36 11,4 C 8,3 C 8,3 C 80 % 995,8 hPa 0,0 l/m 0 min 2 min 75 W/m 16,1 km/h (3 Bft) 97,87 %
06.03.2019 15:38 11,4 C 8,3 C 8,3 C 80 % 995,8 hPa 0,0 l/m 0 min 2 min 80 W/m 12,9 km/h (3 Bft) 97,87 %
06.03.2019 15:40 11,3 C 8,9 C 8,3 C 80 % 995,8 hPa 0,0 l/m 0 min 2 min 66 W/m 29,0 km/h (5 Bft) 97,87 %
06.03.2019 15:42 11,3 C 8,9 C 8,3 C 81 % 995,7 hPa 0,0 l/m 0 min 2 min 64 W/m 19,3 km/h (3 Bft) 95,74 %
06.03.2019 15:44 11,2 C 8,9 C 8,3 C 81 % 995,6 hPa 0,0 l/m 0 min 2 min 56 W/m 22,5 km/h (4 Bft) 97,83 %
06.03.2019 15:46 11,2 C 8,9 C 8,3 C 81 % 995,6 hPa 0,0 l/m 0 min 2 min 53 W/m 12,9 km/h (3 Bft) 97,87 %
06.03.2019 15:48 11,2 C 8,9 C 8,3 C 81 % 995,5 hPa 0,0 l/m 0 min 2 min 54 W/m 22,5 km/h (4 Bft) 95,74 %
06.03.2019 15:50 11,2 C 8,9 C 8,3 C 81 % 995,5 hPa 0,0 l/m 0 min 0 min 54 W/m 12,9 km/h (3 Bft) 95,74 %
06.03.2019 15:52 11,1 C 8,9 C 8,3 C 81 % 995,5 hPa 0,0 l/m 0 min 2 min 53 W/m 22,5 km/h (4 Bft) 95,74 %
06.03.2019 15:54 11,1 C 8,9 C 8,3 C 81 % 995,4 hPa 0,2 l/m 0 min 2 min 45 W/m 19,3 km/h (3 Bft) 97,87 %
06.03.2019 15:56 11,1 C 8,9 C 8,3 C 82 % 995,4 hPa 0,0 l/m 0 min 2 min 38 W/m 19,3 km/h (3 Bft) 95,65 %
06.03.2019 15:58 11,1 C 8,9 C 8,3 C 82 % 995,4 hPa 0,0 l/m 0 min 2 min 39 W/m 32,2 km/h (5 Bft) 97,87 %
06.03.2019 16:00 11,0 C 8,9 C 8,3 C 82 % 995,5 hPa 0,0 l/m 0 min 2 min 48 W/m 19,3 km/h (3 Bft) 91,49 %
06.03.2019 16:02 11,0 C 8,9 C 8,3 C 82 % 995,3 hPa 0,0 l/m 0 min 2 min 54 W/m 25,7 km/h (4 Bft) 95,83 %
06.03.2019 16:04 11,0 C 8,9 C 8,3 C 82 % 995,2 hPa 0,0 l/m 0 min 2 min 55 W/m 22,5 km/h (4 Bft) 95,74 %
06.03.2019 16:06 10,9 C 8,9 C 8,3 C 82 % 995,1 hPa 0,0 l/m 0 min 0 min 54 W/m 22,5 km/h (4 Bft) 95,74 %
06.03.2019 16:08 10,9 C 8,9 C 8,3 C 82 % 995,1 hPa 0,0 l/m 0 min 2 min 50 W/m 22,5 km/h (4 Bft) 95,65 %
06.03.2019 16:10 10,9 C 8,9 C 8,3 C 81 % 995,1 hPa 0,0 l/m 0 min 2 min 42 W/m 29,0 km/h (5 Bft) 95,74 %
06.03.2019 16:12 10,9 C 8,9 C 8,3 C 81 % 995,1 hPa 0,0 l/m 0 min 2 min 35 W/m 22,5 km/h (4 Bft) 93,62 %
06.03.2019 16:14 10,9 C 8,9 C 8,3 C 81 % 995,1 hPa 0,0 l/m 0 min 2 min 35 W/m 29,0 km/h (5 Bft) 93,62 %
06.03.2019 16:16 10,9 C 8,9 C 8,3 C 81 % 995,0 hPa 0,0 l/m 0 min 2 min 40 W/m 29,0 km/h (5 Bft) 93,62 %
06.03.2019 16:18 10,9 C 8,9 C 8,3 C 81 % 995,1 hPa 0,0 l/m 0 min 2 min 43 W/m 29,0 km/h (5 Bft) 95,74 %
06.03.2019 16:20 10,9 C 8,9 C 8,3 C 81 % 995,0 hPa 0,0 l/m 0 min 2 min 46 W/m 35,4 km/h (5 Bft) 95,65 %
06.03.2019 16:22 10,9 C 8,9 C 8,3 C 81 % 994,9 hPa 0,0 l/m 0 min 0 min 50 W/m 16,1 km/h (3 Bft) 95,74 %
06.03.2019 16:24 10,9 C 9,4 C 8,3 C 81 % 995,0 hPa 0,0 l/m 0 min 2 min 50 W/m 22,5 km/h (4 Bft) 97,87 %
06.03.2019 16:26 11,0 C 9,4 C 8,3 C 81 % 994,9 hPa 0,0 l/m 0 min 2 min 49 W/m 19,3 km/h (3 Bft) 97,87 %
06.03.2019 16:28 11,0 C 8,9 C 8,3 C 81 % 994,9 hPa 0,0 l/m 0 min 2 min 49 W/m 19,3 km/h (3 Bft) 97,87 %
06.03.2019 16:30 11,0 C 8,9 C 8,3 C 80 % 994,8 hPa 0,0 l/m 0 min 2 min 48 W/m 16,1 km/h (3 Bft) 97,87 %
06.03.2019 16:32 11,0 C 8,9 C 8,3 C 80 % 994,9 hPa 0,0 l/m 0 min 2 min 47 W/m 25,7 km/h (4 Bft) 95,65 %
06.03.2019 16:34 11,1 C 8,9 C 8,3 C 80 % 994,8 hPa 0,0 l/m 0 min 0 min 47 W/m 16,1 km/h (3 Bft) 97,87 %
06.03.2019 16:36 11,1 C 9,4 C 8,3 C 80 % 994,8 hPa 0,0 l/m 0 min 2 min 48 W/m 16,1 km/h (3 Bft) 97,87 %
06.03.2019 16:38 11,1 C 8,9 C 8,3 C 80 % 994,8 hPa 0,0 l/m 0 min 2 min 49 W/m 22,5 km/h (4 Bft) 91,67 %
06.03.2019 16:40 11,1 C 8,9 C 8,3 C 80 % 994,7 hPa 0,0 l/m 0 min 2 min 52 W/m 29,0 km/h (5 Bft) 95,74 %
06.03.2019 16:42 11,1 C 8,9 C 8,3 C 80 % 994,6 hPa 0,0 l/m 0 min 2 min 53 W/m 25,7 km/h (4 Bft) 97,87 %
06.03.2019 16:44 11,1 C 8,9 C 8,3 C 80 % 994,5 hPa 0,0 l/m 0 min 2 min 52 W/m 19,3 km/h (3 Bft) 97,83 %
06.03.2019 16:46 11,1 C 8,9 C 8,9 C 80 % 994,5 hPa 0,0 l/m 0 min 2 min 49 W/m 29,0 km/h (5 Bft) 95,74 %
06.03.2019 16:48 11,1 C 8,9 C 8,9 C 80 % 994,5 hPa 0,0 l/m 0 min 2 min 47 W/m 22,5 km/h (4 Bft) 100,00 %
06.03.2019 16:50 11,2 C 8,9 C 8,9 C 80 % 994,4 hPa 0,0 l/m 0 min 2 min 44 W/m 22,5 km/h (4 Bft) 97,87 %
06.03.2019 16:52 11,1 C 8,9 C 8,9 C 81 % 994,4 hPa 0,0 l/m 0 min 0 min 44 W/m 19,3 km/h (3 Bft) 100,00 %
06.03.2019 16:54 11,2 C 8,9 C 8,9 C 81 % 994,4 hPa 0,0 l/m 0 min 0 min 42 W/m 19,3 km/h (3 Bft) 100,00 %
06.03.2019 16:56 11,2 C 9,4 C 8,9 C 80 % 994,4 hPa 0,0 l/m 0 min 2 min 38 W/m 12,9 km/h (3 Bft) 100,00 %
06.03.2019 16:58 11,2 C 9,4 C 8,9 C 81 % 994,4 hPa 0,0 l/m 0 min 0 min 34 W/m 12,9 km/h (3 Bft) 100,00 %
06.03.2019 17:00 11,2 C 9,4 C 9,4 C 80 % 994,4 hPa 0,0 l/m 0 min 0 min 30 W/m 16,1 km/h (3 Bft) 100,00 %
06.03.2019 17:02 11,2 C 9,4 C 9,4 C 80 % 994,4 hPa 0,0 l/m 0 min 0 min 25 W/m 22,5 km/h (4 Bft) 95,74 %
06.03.2019 17:04 11,2 C 10,0 C 9,4 C 80 % 994,4 hPa 0,0 l/m 0 min 0 min 20 W/m 19,3 km/h (3 Bft) 100,00 %
06.03.2019 17:06 11,2 C 10,0 C 9,4 C 80 % 994,4 hPa 0,0 l/m 0 min 0 min 16 W/m 16,1 km/h (3 Bft) 97,83 %
06.03.2019 17:08 11,2 C 10,0 C 10,0 C 80 % 994,4 hPa 0,0 l/m 0 min 0 min 13 W/m 16,1 km/h (3 Bft) 100,00 %
06.03.2019 17:10 11,2 C 10,0 C 10,0 C 80 % 994,4 hPa 0,0 l/m 0 min 0 min 12 W/m 19,3 km/h (3 Bft) 100,00 %
06.03.2019 17:12 11,2 C 10,0 C 10,0 C 80 % 994,4 hPa 0,0 l/m 0 min 0 min 12 W/m 22,5 km/h (4 Bft) 100,00 %
06.03.2019 17:14 11,2 C 10,0 C 9,4 C 80 % 994,4 hPa 0,0 l/m 0 min 2 min 12 W/m 12,9 km/h (3 Bft) 100,00 %
06.03.2019 17:16 11,3 C 10,6 C 9,4 C 80 % 994,4 hPa 0,0 l/m 0 min 0 min 14 W/m 22,5 km/h (4 Bft) 95,74 %
06.03.2019 17:18 11,3 C 10,6 C 9,4 C 80 % 994,3 hPa 0,0 l/m 0 min 0 min 14 W/m 29,0 km/h (5 Bft) 97,83 %
06.03.2019 17:20 11,3 C 10,6 C 9,4 C 79 % 994,4 hPa 0,0 l/m 0 min 2 min 12 W/m 19,3 km/h (3 Bft) 100,00 %
06.03.2019 17:22 11,4 C 10,6 C 10,0 C 79 % 994,3 hPa 0,0 l/m 0 min 2 min 12 W/m 16,1 km/h (3 Bft) 95,74 %
06.03.2019 17:24 11,4 C 10,6 C 10,0 C 79 % 994,3 hPa 0,0 l/m 0 min 2 min 14 W/m 16,1 km/h (3 Bft) 100,00 %
06.03.2019 17:26 11,4 C 11,1 C 10,0 C 79 % 994,2 hPa 0,0 l/m 0 min 0 min 14 W/m 22,5 km/h (4 Bft) 97,87 %
06.03.2019 17:28 11,5 C 11,1 C 10,6 C 79 % 994,1 hPa 0,0 l/m 0 min 0 min 14 W/m 25,7 km/h (4 Bft) 87,23 %
06.03.2019 17:30 11,6 C 11,1 C 10,6 C 79 % 994,1 hPa 0,0 l/m 0 min 2 min 12 W/m 25,7 km/h (4 Bft) 84,78 %
06.03.2019 17:32 11,6 C 11,1 C 10,6 C 78 % 994,2 hPa 0,0 l/m 0 min 2 min 14 W/m 19,3 km/h (3 Bft) 97,87 %
06.03.2019 17:34 11,7 C 11,1 C 10,0 C 78 % 994,2 hPa 0,0 l/m 0 min 2 min 12 W/m 22,5 km/h (4 Bft) 97,87 %
06.03.2019 17:36 11,7 C 11,1 C 10,0 C 78 % 994,2 hPa 0,0 l/m 0 min 2 min 11 W/m 12,9 km/h (3 Bft) 97,87 %
06.03.2019 17:38 11,7 C 10,6 C 10,0 C 78 % 994,3 hPa 0,0 l/m 0 min 2 min 10 W/m 25,7 km/h (4 Bft) 100,00 %
06.03.2019 17:40 11,8 C 10,6 C 10,0 C 78 % 994,2 hPa 0,0 l/m 0 min 2 min 9 W/m 16,1 km/h (3 Bft) 97,83 %
06.03.2019 17:42 11,8 C 10,6 C 9,4 C 78 % 994,2 hPa 0,0 l/m 0 min 2 min 7 W/m 16,1 km/h (3 Bft) 100,00 %
06.03.2019 17:44 11,8 C 10,0 C 8,9 C 79 % 994,2 hPa 0,0 l/m 0 min 2 min 6 W/m 16,1 km/h (3 Bft) 100,00 %
06.03.2019 17:46 11,8 C 9,4 C 8,9 C 79 % 994,2 hPa 0,0 l/m 0 min 2 min 6 W/m 22,5 km/h (4 Bft) 100,00 %
06.03.2019 17:48 11,8 C 9,4 C 8,9 C 80 % 994,2 hPa 0,0 l/m 0 min 2 min 6 W/m 25,7 km/h (4 Bft) 100,00 %
06.03.2019 17:50 11,8 C 9,4 C 8,9 C 80 % 994,2 hPa 0,0 l/m 0 min 2 min 5 W/m 19,3 km/h (3 Bft) 100,00 %
06.03.2019 17:52 11,8 C 9,4 C 8,3 C 80 % 994,2 hPa 0,0 l/m 0 min 2 min 5 W/m 22,5 km/h (4 Bft) 100,00 %
06.03.2019 17:54 11,8 C 8,9 C 8,3 C 80 % 994,2 hPa 0,0 l/m 0 min 2 min 5 W/m 22,5 km/h (4 Bft) 100,00 %
06.03.2019 17:56 11,8 C 8,9 C 8,3 C 81 % 994,2 hPa 0,2 l/m 0 min 2 min 5 W/m 16,1 km/h (3 Bft) 97,87 %
06.03.2019 17:58 11,7 C 8,9 C 8,3 C 81 % 994,2 hPa 0,0 l/m 0 min 2 min 5 W/m 16,1 km/h (3 Bft) 97,87 %
06.03.2019 18:00 11,7 C 8,9 C 8,3 C 82 % 994,1 hPa 0,0 l/m 0 min 2 min 5 W/m 16,1 km/h (3 Bft) 97,87 %
06.03.2019 18:02 11,7 C 8,3 C 8,3 C 82 % 994,1 hPa 0,0 l/m 0 min 2 min 0 W/m 16,1 km/h (3 Bft) 93,75 %
06.03.2019 18:04 11,6 C 8,3 C 8,3 C 82 % 994,1 hPa 0,0 l/m 0 min 2 min 0 W/m 19,3 km/h (3 Bft) 97,83 %
06.03.2019 18:07 11,6 C 8,3 C 8,3 C 83 % 994,1 hPa 0,2 l/m 0 min 3 min 0 W/m 19,3 km/h (3 Bft) 97,18 %
06.03.2019 18:08 11,5 C 8,3 C 8,3 C 83 % 994,1 hPa 0,0 l/m 0 min 1 min 0 W/m 12,9 km/h (3 Bft) 95,65 %
06.03.2019 18:10 11,5 C 8,3 C 8,3 C 83 % 994,2 hPa 0,0 l/m 0 min 2 min 0 W/m 22,5 km/h (4 Bft) 97,87 %
06.03.2019 18:12 11,4 C 8,3 C 8,3 C 83 % 994,2 hPa 0,0 l/m 0 min 2 min 0 W/m 22,5 km/h (4 Bft) 95,74 %
06.03.2019 18:14 11,4 C 8,3 C 8,3 C 84 % 994,2 hPa 0,0 l/m 0 min 2 min 0 W/m 16,1 km/h (3 Bft) 97,87 %
06.03.2019 18:16 11,3 C 8,3 C 7,8 C 84 % 994,2 hPa 0,0 l/m 0 min 2 min 0 W/m 25,7 km/h (4 Bft) 97,83 %
06.03.2019 18:18 11,3 C 8,3 C 7,8 C 85 % 994,2 hPa 0,2 l/m 0 min 2 min 0 W/m 16,1 km/h (3 Bft) 95,74 %
06.03.2019 18:20 11,2 C 8,3 C 7,8 C 85 % 994,2 hPa 0,0 l/m 0 min 2 min 0 W/m 19,3 km/h (3 Bft) 95,74 %
06.03.2019 18:22 11,2 C 8,3 C 7,8 C 85 % 994,3 hPa 0,0 l/m 0 min 2 min 0 W/m 16,1 km/h (3 Bft) 93,62 %
06.03.2019 18:24 11,2 C 8,3 C 7,8 C 85 % 994,3 hPa 0,2 l/m 0 min 2 min 0 W/m 12,9 km/h (3 Bft) 93,62 %
06.03.2019 18:26 11,1 C 8,3 C 7,8 C 86 % 994,2 hPa 0,0 l/m 0 min 2 min 0 W/m 12,9 km/h (3 Bft) 93,62 %
06.03.2019 18:28 11,1 C 8,3 C 7,8 C 86 % 994,3 hPa 0,0 l/m 0 min 2 min 0 W/m 16,1 km/h (3 Bft) 89,13 %
06.03.2019 18:30 11,1 C 8,3 C 7,8 C 86 % 994,3 hPa 0,0 l/m 0 min 2 min 0 W/m 16,1 km/h (3 Bft) 95,74 %
06.03.2019 18:32 11,0 C 8,3 C 7,8 C 86 % 994,3 hPa 0,0 l/m 0 min 2 min 0 W/m 9,7 km/h (2 Bft) 93,62 %
06.03.2019 18:34 11,0 C 8,3 C 7,8 C 87 % 994,3 hPa 0,2 l/m 0 min 2 min 0 W/m 12,9 km/h (3 Bft) 93,62 %
06.03.2019 18:36 10,9 C 8,3 C 7,8 C 87 % 994,3 hPa 0,0 l/m 0 min 2 min 0 W/m 16,1 km/h (3 Bft) 93,62 %
06.03.2019 18:38 10,9 C 8,3 C 7,8 C 87 % 994,3 hPa 0,0 l/m 0 min 2 min 0 W/m 19,3 km/h (3 Bft) 91,67 %
06.03.2019 18:40 10,9 C 8,3 C 7,8 C 87 % 994,2 hPa 0,0 l/m 0 min 2 min 0 W/m 12,9 km/h (3 Bft) 93,48 %
06.03.2019 18:42 10,8 C 8,3 C 7,8 C 87 % 994,3 hPa 0,0 l/m 0 min 2 min 0 W/m 19,3 km/h (3 Bft) 93,62 %
06.03.2019 18:44 10,8 C 8,3 C 8,3 C 88 % 994,2 hPa 0,0 l/m 0 min 2 min 0 W/m 22,5 km/h (4 Bft) 93,62 %
06.03.2019 18:46 10,8 C 8,3 C 8,3 C 88 % 994,2 hPa 0,2 l/m 0 min 2 min 0 W/m 9,7 km/h (2 Bft) 87,23 %
06.03.2019 18:48 10,8 C 8,3 C 7,8 C 88 % 994,2 hPa 0,0 l/m 0 min 2 min 0 W/m 9,7 km/h (2 Bft) 93,62 %
06.03.2019 18:50 10,7 C 8,3 C 7,8 C 88 % 994,2 hPa 0,0 l/m 0 min 2 min 0 W/m 22,5 km/h (4 Bft) 91,30 %
06.03.2019 18:52 10,7 C 8,3 C 7,8 C 88 % 994,1 hPa 0,0 l/m 0 min 2 min 0 W/m 9,7 km/h (2 Bft) 93,62 %
06.03.2019 18:54 10,7 C 8,3 C 8,3 C 89 % 994,2 hPa 0,0 l/m 0 min 2 min 0 W/m 12,9 km/h (3 Bft) 93,62 %
06.03.2019 18:56 10,7 C 8,3 C 8,3 C 88 % 994,1 hPa 0,0 l/m 0 min 2 min 0 W/m 12,9 km/h (3 Bft) 89,36 %
06.03.2019 18:58 10,7 C 8,3 C 8,3 C 89 % 994,0 hPa 0,0 l/m 0 min 2 min 0 W/m 16,1 km/h (3 Bft) 93,75 %
06.03.2019 19:00 10,7 C 8,3 C 8,3 C 89 % 994,0 hPa 0,2 l/m 0 min 2 min 0 W/m 29,0 km/h (5 Bft) 95,74 %
06.03.2019 19:02 10,7 C 8,3 C 8,3 C 89 % 994,0 hPa 0,0 l/m 0 min 2 min 0 W/m 19,3 km/h (3 Bft) 95,65 %
06.03.2019 19:04 10,6 C 8,3 C 8,3 C 89 % 993,9 hPa 0,0 l/m 0 min 2 min 0 W/m 12,9 km/h (3 Bft) 95,74 %
06.03.2019 19:06 10,6 C 8,3 C 8,3 C 89 % 993,7 hPa 0,0 l/m 0 min 2 min 0 W/m 22,5 km/h (4 Bft) 95,74 %
06.03.2019 19:08 10,6 C 8,3 C 8,3 C 89 % 993,7 hPa 0,0 l/m 0 min 2 min 0 W/m 19,3 km/h (3 Bft) 85,11 %
06.03.2019 19:10 10,6 C 8,9 C 8,3 C 90 % 993,7 hPa 0,0 l/m 0 min 2 min 0 W/m 12,9 km/h (3 Bft) 93,62 %
06.03.2019 19:12 10,6 C 8,9 C 7,8 C 90 % 993,7 hPa 0,0 l/m 0 min 2 min 0 W/m 25,7 km/h (4 Bft) 95,74 %
06.03.2019 19:14 10,6 C 8,9 C 8,3 C 90 % 993,7 hPa 0,0 l/m 0 min 2 min 0 W/m 25,7 km/h (4 Bft) 95,65 %
06.03.2019 19:16 10,6 C 8,9 C 8,3 C 90 % 993,6 hPa 0,2 l/m 0 min 2 min 0 W/m 19,3 km/h (3 Bft) 97,87 %
06.03.2019 19:18 10,6 C 8,3 C 8,3 C 90 % 993,7 hPa 0,0 l/m 0 min 2 min 0 W/m 25,7 km/h (4 Bft) 97,87 %
06.03.2019 19:20 10,6 C 8,3 C 8,3 C 90 % 993,6 hPa 0,0 l/m 0 min 2 min 0 W/m 19,3 km/h (3 Bft) 95,74 %
06.03.2019 19:22 10,6 C 8,3 C 8,3 C 90 % 993,6 hPa 0,0 l/m 0 min 2 min 0 W/m 29,0 km/h (5 Bft) 93,62 %
06.03.2019 19:24 10,6 C 8,9 C 8,3 C 90 % 993,7 hPa 0,0 l/m 0 min 2 min 0 W/m 22,5 km/h (4 Bft) 100,00 %
06.03.2019 19:26 10,6 C 8,9 C 8,3 C 89 % 993,6 hPa 0,0 l/m 0 min 2 min 0 W/m 22,5 km/h (4 Bft) 100,00 %
06.03.2019 19:28 10,6 C 8,9 C 8,3 C 89 % 993,7 hPa 0,0 l/m 0 min 2 min 0 W/m 29,0 km/h (5 Bft) 97,87 %
06.03.2019 19:30 10,6 C 8,9 C 8,3 C 89 % 993,7 hPa 0,0 l/m 0 min 2 min 0 W/m 29,0 km/h (5 Bft) 97,87 %
06.03.2019 19:32 10,6 C 8,9 C 8,3 C 89 % 993,6 hPa 0,0 l/m 0 min 2 min 0 W/m 22,5 km/h (4 Bft) 100,00 %
06.03.2019 19:34 10,7 C 8,9 C 8,3 C 89 % 993,7 hPa 0,0 l/m 0 min 2 min 0 W/m 29,0 km/h (5 Bft) 100,00 %
06.03.2019 19:36 10,7 C 8,9 C 8,3 C 89 % 993,7 hPa 0,0 l/m 0 min 2 min 0 W/m 12,9 km/h (3 Bft) 97,83 %
06.03.2019 19:38 10,7 C 8,9 C 8,3 C 89 % 993,6 hPa 0,0 l/m 0 min 2 min 0 W/m 19,3 km/h (3 Bft) 100,00 %
06.03.2019 19:40 10,7 C 8,9 C 8,3 C 89 % 993,6 hPa 0,0 l/m 0 min 2 min 0 W/m 29,0 km/h (5 Bft) 100,00 %
06.03.2019 19:42 10,7 C 8,9 C 8,3 C 89 % 993,6 hPa 0,0 l/m 0 min 2 min 0 W/m 22,5 km/h (4 Bft) 100,00 %
06.03.2019 19:44 10,8 C 8,9 C 8,3 C 89 % 993,6 hPa 0,0 l/m 0 min 2 min 0 W/m 29,0 km/h (5 Bft) 100,00 %
06.03.2019 19:46 10,8 C 8,9 C 8,3 C 89 % 993,6 hPa 0,0 l/m 0 min 2 min 0 W/m 22,5 km/h (4 Bft) 100,00 %
06.03.2019 19:48 10,8 C 8,9 C 8,3 C 89 % 993,6 hPa 0,0 l/m 0 min 2 min 0 W/m 32,2 km/h (5 Bft) 100,00 %
06.03.2019 19:50 10,8 C 8,9 C 8,3 C 89 % 993,6 hPa 0,0 l/m 0 min 2 min 0 W/m 19,3 km/h (3 Bft) 100,00 %
06.03.2019 19:52 10,8 C 8,9 C 8,3 C 89 % 993,5 hPa 0,0 l/m 0 min 2 min 0 W/m 16,1 km/h (3 Bft) 100,00 %
06.03.2019 19:54 10,8 C 8,9 C 8,3 C 89 % 993,5 hPa 0,0 l/m 0 min 2 min 0 W/m 22,5 km/h (4 Bft) 100,00 %
06.03.2019 19:56 10,8 C 8,9 C 8,3 C 89 % 993,5 hPa 0,0 l/m 0 min 2 min 0 W/m 19,3 km/h (3 Bft) 97,87 %
06.03.2019 19:58 10,8 C 8,9 C 8,3 C 89 % 993,5 hPa 0,0 l/m 0 min 2 min 0 W/m 29,0 km/h (5 Bft) 100,00 %
06.03.2019 20:00 10,8 C 8,9 C 8,3 C 89 % 993,5 hPa 0,0 l/m 0 min 2 min 0 W/m 25,7 km/h (4 Bft) 97,83 %
06.03.2019 20:02 10,8 C 8,9 C 8,3 C 88 % 993,4 hPa 0,0 l/m 0 min 2 min 0 W/m 29,0 km/h (5 Bft) 97,87 %
06.03.2019 20:04 10,9 C 9,4 C 8,3 C 88 % 993,4 hPa 0,0 l/m 0 min 2 min 0 W/m 29,0 km/h (5 Bft) 100,00 %
06.03.2019 20:06 10,9 C 9,4 C 8,3 C 88 % 993,4 hPa 0,0 l/m 0 min 2 min 0 W/m 29,0 km/h (5 Bft) 97,87 %
06.03.2019 20:08 10,9 C 9,4 C 8,3 C 88 % 993,4 hPa 0,0 l/m 0 min 2 min 0 W/m 25,7 km/h (4 Bft) 100,00 %
06.03.2019 20:10 10,9 C 9,4 C 8,9 C 88 % 993,3 hPa 0,0 l/m 0 min 2 min 0 W/m 16,1 km/h (3 Bft) 100,00 %
06.03.2019 20:12 10,9 C 9,4 C 8,9 C 88 % 993,3 hPa 0,0 l/m 0 min 2 min 0 W/m 29,0 km/h (5 Bft) 100,00 %
06.03.2019 20:14 11,0 C 9,4 C 8,9 C 88 % 993,3 hPa 0,0 l/m 0 min 2 min 0 W/m 25,7 km/h (4 Bft) 100,00 %
06.03.2019 20:16 11,0 C 9,4 C 8,9 C 88 % 993,3 hPa 0,0 l/m 0 min 2 min 0 W/m 29,0 km/h (5 Bft) 100,00 %
06.03.2019 20:18 11,0 C 9,4 C 8,9 C 88 % 993,2 hPa 0,0 l/m 0 min 0 min 0 W/m 16,1 km/h (3 Bft) 97,87 %
06.03.2019 20:20 11,0 C 9,4 C 8,9 C 88 % 993,2 hPa 0,0 l/m 0 min 2 min 0 W/m 19,3 km/h (3 Bft) 100,00 %
06.03.2019 20:22 11,0 C 9,4 C 8,9 C 88 % 993,2 hPa 0,0 l/m 0 min 2 min 0 W/m 22,5 km/h (4 Bft) 100,00 %
06.03.2019 20:24 11,0 C 9,4 C 8,9 C 88 % 993,2 hPa 0,0 l/m 0 min 2 min 0 W/m 19,3 km/h (3 Bft) 100,00 %
06.03.2019 20:26 11,0 C 9,4 C 8,9 C 88 % 993,3 hPa 0,0 l/m 0 min 2 min 0 W/m 19,3 km/h (3 Bft) 100,00 %
06.03.2019 20:28 11,0 C 9,4 C 8,9 C 88 % 993,1 hPa 0,0 l/m 0 min 2 min 0 W/m 25,7 km/h (4 Bft) 97,87 %
06.03.2019 20:30 11,0 C 9,4 C 8,9 C 88 % 993,1 hPa 0,0 l/m 0 min 2 min 0 W/m 19,3 km/h (3 Bft) 100,00 %
06.03.2019 20:32 11,0 C 9,4 C 8,9 C 88 % 993,0 hPa 0,0 l/m 0 min 2 min 0 W/m 19,3 km/h (3 Bft) 100,00 %
06.03.2019 20:34 11,0 C 9,4 C 8,3 C 88 % 993,0 hPa 0,0 l/m 0 min 2 min 0 W/m 19,3 km/h (3 Bft) 97,14 %
06.03.2019 20:36 11,0 C 10,0 C 8,9 C 88 % 993,0 hPa 0,0 l/m 0 min 2 min 0 W/m 29,0 km/h (5 Bft) 100,00 %
06.03.2019 20:38 11,0 C 10,0 C 8,9 C 88 % 993,1 hPa 0,0 l/m 0 min 2 min 0 W/m 19,3 km/h (3 Bft) 100,00 %
06.03.2019 20:40 11,0 C 10,0 C 8,9 C 88 % 993,1 hPa 0,0 l/m 0 min 0 min 0 W/m 25,7 km/h (4 Bft) 100,00 %
06.03.2019 20:42 11,0 C 10,0 C 8,9 C 88 % 993,1 hPa 0,0 l/m 0 min 2 min 0 W/m 22,5 km/h (4 Bft) 100,00 %
06.03.2019 20:44 11,0 C 10,0 C 8,9 C 88 % 993,0 hPa 0,0 l/m 0 min 2 min 0 W/m 16,1 km/h (3 Bft) 100,00 %
06.03.2019 20:46 11,0 C 10,6 C 8,9 C 88 % 993,1 hPa 0,0 l/m 0 min 2 min 0 W/m 22,5 km/h (4 Bft) 100,00 %
06.03.2019 20:48 11,0 C 10,6 C 8,9 C 88 % 993,1 hPa 0,0 l/m 0 min 0 min 0 W/m 22,5 km/h (4 Bft) 97,87 %
06.03.2019 20:50 11,0 C 10,0 C 8,9 C 88 % 993,2 hPa 0,0 l/m 0 min 2 min 0 W/m 16,1 km/h (3 Bft) 100,00 %
06.03.2019 20:52 11,0 C 10,0 C 8,3 C 88 % 993,1 hPa 0,0 l/m 0 min 2 min 0 W/m 16,1 km/h (3 Bft) 100,00 %
06.03.2019 20:54 11,0 C 9,4 C 8,3 C 88 % 993,0 hPa 0,0 l/m 0 min 2 min 0 W/m 19,3 km/h (3 Bft) 100,00 %
06.03.2019 20:56 11,0 C 8,9 C 8,3 C 88 % 993,0 hPa 0,0 l/m 0 min 2 min 0 W/m 19,3 km/h (3 Bft) 95,74 %
06.03.2019 20:58 11,0 C 8,9 C 8,3 C 88 % 993,0 hPa 0,0 l/m 0 min 2 min 0 W/m 12,9 km/h (3 Bft) 100,00 %
06.03.2019 21:00 11,0 C 8,9 C 8,3 C 88 % 993,0 hPa 0,0 l/m 0 min 2 min 0 W/m 16,1 km/h (3 Bft) 100,00 %
06.03.2019 21:02 11,0 C 8,9 C 8,3 C 88 % 993,0 hPa 0,0 l/m 0 min 2 min 0 W/m 19,3 km/h (3 Bft) 95,65 %
06.03.2019 21:04 11,0 C 8,9 C 8,3 C 88 % 993,0 hPa 0,0 l/m 0 min 2 min 0 W/m 12,9 km/h (3 Bft) 97,87 %
06.03.2019 21:06 10,9 C 8,9 C 8,3 C 88 % 992,9 hPa 0,0 l/m 0 min 2 min 0 W/m 16,1 km/h (3 Bft) 96,61 %
06.03.2019 21:08 10,9 C 8,9 C 8,3 C 88 % 992,9 hPa 0,0 l/m 0 min 2 min 0 W/m 16,1 km/h (3 Bft) 100,00 %
06.03.2019 21:10 10,9 C 8,9 C 8,3 C 88 % 993,0 hPa 0,2 l/m 0 min 2 min 0 W/m 12,9 km/h (3 Bft) 97,87 %
06.03.2019 21:12 10,9 C 8,9 C 8,3 C 88 % 992,9 hPa 0,0 l/m 0 min 2 min 0 W/m 29,0 km/h (5 Bft) 91,49 %
06.03.2019 21:14 10,9 C 8,9 C 8,3 C 88 % 992,9 hPa 0,0 l/m 0 min 2 min 0 W/m 25,7 km/h (4 Bft) 95,65 %
06.03.2019 21:16 10,9 C 8,9 C 8,3 C 88 % 992,9 hPa 0,0 l/m 0 min 2 min 0 W/m 12,9 km/h (3 Bft) 95,74 %
06.03.2019 21:18 10,8 C 8,3 C 8,3 C 89 % 992,8 hPa 0,2 l/m 0 min 2 min 0 W/m 19,3 km/h (3 Bft) 93,62 %
06.03.2019 21:20 10,8 C 8,9 C 8,3 C 89 % 992,8 hPa 0,0 l/m 0 min 2 min 0 W/m 19,3 km/h (3 Bft) 93,62 %
06.03.2019 21:22 10,8 C 8,9 C 8,3 C 89 % 992,8 hPa 0,0 l/m 0 min 2 min 0 W/m 22,5 km/h (4 Bft) 95,74 %
06.03.2019 21:24 10,8 C 8,3 C 8,3 C 89 % 992,8 hPa 0,0 l/m 0 min 2 min 0 W/m 22,5 km/h (4 Bft) 95,74 %
06.03.2019 21:26 10,8 C 8,3 C 8,3 C 89 % 992,8 hPa 0,0 l/m 0 min 2 min 0 W/m 6,4 km/h (2 Bft) 93,48 %
06.03.2019 21:28 10,7 C 8,3 C 8,3 C 89 % 992,8 hPa 0,0 l/m 0 min 2 min 0 W/m 16,1 km/h (3 Bft) 93,62 %
06.03.2019 21:30 10,7 C 8,3 C 8,3 C 89 % 992,8 hPa 0,0 l/m 0 min 2 min 0 W/m 22,5 km/h (4 Bft) 89,36 %
06.03.2019 21:32 10,7 C 8,3 C 8,3 C 89 % 992,8 hPa 0,0 l/m 0 min 2 min 0 W/m 19,3 km/h (3 Bft) 93,75 %
06.03.2019 21:34 10,7 C 8,3 C 8,3 C 90 % 992,8 hPa 0,0 l/m 0 min 2 min 0 W/m 16,1 km/h (3 Bft) 93,62 %
06.03.2019 21:36 10,7 C 8,3 C 8,3 C 90 % 992,8 hPa 0,0 l/m 0 min 2 min 0 W/m 12,9 km/h (3 Bft) 93,48 %
06.03.2019 21:38 10,6 C 8,3 C 8,3 C 90 % 992,7 hPa 0,0 l/m 0 min 2 min 0 W/m 19,3 km/h (3 Bft) 93,62 %
06.03.2019 21:40 10,6 C 8,3 C 8,3 C 90 % 992,8 hPa 0,0 l/m 0 min 2 min 0 W/m 9,7 km/h (2 Bft) 93,62 %
06.03.2019 21:42 10,6 C 8,3 C 8,3 C 90 % 992,7 hPa 0,0 l/m 0 min 2 min 0 W/m 16,1 km/h (3 Bft) 93,62 %
06.03.2019 21:44 10,6 C 8,3 C 8,3 C 90 % 992,7 hPa 0,0 l/m 0 min 2 min 0 W/m 6,4 km/h (2 Bft) 91,49 %
06.03.2019 21:46 10,5 C 8,3 C 8,3 C 90 % 992,7 hPa 0,0 l/m 0 min 2 min 0 W/m 9,7 km/h (2 Bft) 91,49 %
06.03.2019 21:48 10,5 C 8,3 C 8,3 C 90 % 992,7 hPa 0,0 l/m 0 min 2 min 0 W/m 12,9 km/h (3 Bft) 91,30 %
06.03.2019 21:50 10,5 C 8,3 C 8,3 C 91 % 992,7 hPa 0,2 l/m 0 min 2 min 0 W/m 12,9 km/h (3 Bft) 91,49 %
06.03.2019 21:52 10,4 C 8,3 C 8,3 C 91 % 992,8 hPa 0,0 l/m 0 min 2 min 0 W/m 12,9 km/h (3 Bft) 93,62 %
06.03.2019 21:54 10,4 C 8,3 C 8,3 C 91 % 992,8 hPa 0,0 l/m 0 min 2 min 0 W/m 16,1 km/h (3 Bft) 91,49 %
06.03.2019 21:56 10,4 C 8,3 C 8,3 C 91 % 992,7 hPa 0,0 l/m 0 min 2 min 0 W/m 19,3 km/h (3 Bft) 93,62 %
06.03.2019 21:58 10,4 C 8,3 C 8,3 C 91 % 992,7 hPa 0,0 l/m 0 min 2 min 0 W/m 16,1 km/h (3 Bft) 95,74 %
06.03.2019 22:00 10,4 C 8,3 C 8,3 C 91 % 992,7 hPa 0,0 l/m 0 min 2 min 0 W/m 12,9 km/h (3 Bft) 97,83 %
06.03.2019 22:02 10,4 C 8,3 C 8,3 C 91 % 992,7 hPa 0,0 l/m 0 min 2 min 0 W/m 12,9 km/h (3 Bft) 97,87 %
06.03.2019 22:04 10,4 C 8,3 C 8,3 C 91 % 992,7 hPa 0,0 l/m 0 min 2 min 0 W/m 12,9 km/h (3 Bft) 93,62 %
06.03.2019 22:06 10,4 C 8,3 C 8,3 C 91 % 992,6 hPa 0,0 l/m 0 min 2 min 0 W/m 12,9 km/h (3 Bft) 97,87 %
06.03.2019 22:08 10,3 C 8,3 C 8,3 C 91 % 992,6 hPa 0,0 l/m 0 min 2 min 0 W/m 6,4 km/h (2 Bft) 97,87 %
06.03.2019 22:10 10,3 C 8,3 C 7,8 C 91 % 992,7 hPa 0,0 l/m 0 min 2 min 0 W/m 9,7 km/h (2 Bft) 95,74 %
06.03.2019 22:12 10,3 C 8,3 C 7,8 C 91 % 992,7 hPa 0,0 l/m 0 min 2 min 0 W/m 9,7 km/h (2 Bft) 95,65 %
06.03.2019 22:14 10,3 C 8,3 C 7,8 C 91 % 992,7 hPa 0,0 l/m 0 min 0 min 0 W/m 9,7 km/h (2 Bft) 97,87 %
06.03.2019 22:16 10,3 C 8,3 C 7,8 C 91 % 992,6 hPa 0,0 l/m 0 min 0 min 0 W/m 19,3 km/h (3 Bft) 97,87 %
06.03.2019 22:18 10,3 C 8,3 C 8,3 C 91 % 992,6 hPa 0,0 l/m 0 min 0 min 0 W/m 12,9 km/h (3 Bft) 97,87 %
06.03.2019 22:20 10,3 C 8,3 C 7,8 C 91 % 992,6 hPa 0,0 l/m 0 min 0 min 0 W/m 16,1 km/h (3 Bft) 97,87 %
06.03.2019 22:22 10,3 C 8,3 C 8,3 C 91 % 992,6 hPa 0,0 l/m 0 min 2 min 0 W/m 12,9 km/h (3 Bft) 97,87 %
06.03.2019 22:24 10,2 C 8,3 C 8,3 C 92 % 992,5 hPa 0,0 l/m 0 min 0 min 0 W/m 12,9 km/h (3 Bft) 97,83 %
06.03.2019 22:26 10,2 C 8,3 C 8,3 C 92 % 992,4 hPa 0,0 l/m 0 min 0 min 0 W/m 19,3 km/h (3 Bft) 97,87 %
06.03.2019 22:28 10,2 C 8,9 C 8,3 C 92 % 992,5 hPa 0,0 l/m 0 min 0 min 0 W/m 16,1 km/h (3 Bft) 100,00 %
06.03.2019 22:30 10,2 C 8,9 C 8,3 C 92 % 992,5 hPa 0,0 l/m 0 min 0 min 0 W/m 19,3 km/h (3 Bft) 100,00 %
06.03.2019 22:32 10,2 C 8,9 C 8,3 C 92 % 992,5 hPa 0,0 l/m 0 min 0 min 0 W/m 22,5 km/h (4 Bft) 97,87 %
06.03.2019 22:34 10,2 C 8,9 C 8,3 C 92 % 992,4 hPa 0,0 l/m 0 min 0 min 0 W/m 22,5 km/h (4 Bft) 97,87 %
06.03.2019 22:36 10,2 C 8,9 C 7,8 C 92 % 992,4 hPa 0,0 l/m 0 min 0 min 0 W/m 19,3 km/h (3 Bft) 100,00 %
06.03.2019 22:38 10,2 C 8,9 C 7,8 C 92 % 992,4 hPa 0,0 l/m 0 min 2 min 0 W/m 12,9 km/h (3 Bft) 100,00 %
06.03.2019 22:40 10,2 C 8,9 C 7,8 C 92 % 992,3 hPa 0,0 l/m 0 min 0 min 0 W/m 12,9 km/h (3 Bft) 95,74 %
06.03.2019 22:42 10,2 C 8,9 C 7,8 C 91 % 992,3 hPa 0,0 l/m 0 min 2 min 0 W/m 16,1 km/h (3 Bft) 100,00 %
06.03.2019 22:44 10,2 C 8,9 C 7,8 C 91 % 992,3 hPa 0,0 l/m 0 min 2 min 0 W/m 16,1 km/h (3 Bft) 97,87 %
06.03.2019 22:46 10,2 C 8,3 C 7,8 C 91 % 992,3 hPa 0,0 l/m 0 min 2 min 0 W/m 12,9 km/h (3 Bft) 100,00 %
06.03.2019 22:48 10,2 C 8,3 C 7,8 C 91 % 992,3 hPa 0,0 l/m 0 min 2 min 0 W/m 19,3 km/h (3 Bft) 100,00 %
06.03.2019 22:50 10,2 C 8,3 C 7,8 C 91 % 992,2 hPa 0,0 l/m 0 min 2 min 0 W/m 16,1 km/h (3 Bft) 100,00 %
06.03.2019 22:52 10,2 C 8,3 C 7,8 C 91 % 992,2 hPa 0,0 l/m 0 min 2 min 0 W/m 19,3 km/h (3 Bft) 100,00 %
06.03.2019 22:54 10,2 C 8,3 C 7,8 C 91 % 992,2 hPa 0,0 l/m 0 min 2 min 0 W/m 16,1 km/h (3 Bft) 100,00 %
06.03.2019 22:56 10,2 C 8,3 C 7,8 C 91 % 992,1 hPa 0,0 l/m 0 min 2 min 0 W/m 16,1 km/h (3 Bft) 100,00 %
06.03.2019 22:58 10,2 C 8,3 C 7,8 C 91 % 992,2 hPa 0,0 l/m 0 min 2 min 0 W/m 16,1 km/h (3 Bft) 100,00 %
06.03.2019 23:00 10,2 C 8,3 C 7,8 C 91 % 992,1 hPa 0,0 l/m 0 min 2 min 0 W/m 16,1 km/h (3 Bft) 100,00 %
06.03.2019 23:02 10,1 C 8,3 C 7,8 C 91 % 992,1 hPa 0,0 l/m 0 min 2 min 0 W/m 16,1 km/h (3 Bft) 97,87 %
06.03.2019 23:04 10,1 C 8,3 C 7,8 C 91 % 992,0 hPa 0,2 l/m 0 min 2 min 0 W/m 16,1 km/h (3 Bft) 97,87 %
06.03.2019 23:06 10,1 C 8,3 C 7,8 C 91 % 992,1 hPa 0,0 l/m 0 min 2 min 0 W/m 12,9 km/h (3 Bft) 100,00 %
06.03.2019 23:08 10,1 C 8,3 C 7,8 C 91 % 992,0 hPa 0,0 l/m 0 min 2 min 0 W/m 16,1 km/h (3 Bft) 100,00 %
06.03.2019 23:10 10,1 C 8,3 C 7,8 C 91 % 992,0 hPa 0,0 l/m 0 min 2 min 0 W/m 19,3 km/h (3 Bft) 100,00 %
06.03.2019 23:12 10,1 C 8,3 C 7,8 C 91 % 992,0 hPa 0,0 l/m 0 min 2 min 0 W/m 16,1 km/h (3 Bft) 97,87 %
06.03.2019 23:14 10,1 C 8,3 C 7,8 C 91 % 991,9 hPa 0,0 l/m 0 min 2 min 0 W/m 16,1 km/h (3 Bft) 97,87 %
06.03.2019 23:16 10,1 C 8,3 C 7,8 C 91 % 992,0 hPa 0,0 l/m 0 min 2 min 0 W/m 19,3 km/h (3 Bft) 95,74 %
06.03.2019 23:18 10,1 C 8,3 C 7,8 C 91 % 991,9 hPa 0,0 l/m 0 min 2 min 0 W/m 22,5 km/h (4 Bft) 100,00 %
06.03.2019 23:20 10,1 C 8,3 C 7,8 C 91 % 991,9 hPa 0,0 l/m 0 min 2 min 0 W/m 19,3 km/h (3 Bft) 100,00 %
06.03.2019 23:22 10,1 C 8,3 C 7,8 C 91 % 991,9 hPa 0,0 l/m 0 min 2 min 0 W/m 25,7 km/h (4 Bft) 100,00 %
06.03.2019 23:24 10,1 C 8,3 C 7,8 C 91 % 991,9 hPa 0,0 l/m 0 min 2 min 0 W/m 22,5 km/h (4 Bft) 100,00 %
06.03.2019 23:26 10,1 C 8,3 C 7,8 C 91 % 991,9 hPa 0,0 l/m 0 min 2 min 0 W/m 12,9 km/h (3 Bft) 100,00 %
06.03.2019 23:28 10,1 C 8,3 C 7,8 C 91 % 991,8 hPa 0,0 l/m 0 min 2 min 0 W/m 19,3 km/h (3 Bft) 100,00 %
06.03.2019 23:30 10,1 C 8,3 C 7,8 C 92 % 991,8 hPa 0,0 l/m 0 min 2 min 0 W/m 19,3 km/h (3 Bft) 100,00 %
06.03.2019 23:32 10,1 C 8,3 C 7,8 C 92 % 991,8 hPa 0,0 l/m 0 min 0 min 0 W/m 19,3 km/h (3 Bft) 100,00 %
06.03.2019 23:34 10,1 C 8,3 C 7,8 C 92 % 991,7 hPa 0,0 l/m 0 min 2 min 0 W/m 19,3 km/h (3 Bft) 97,83 %
06.03.2019 23:36 10,1 C 8,3 C 7,8 C 92 % 991,7 hPa 0,0 l/m 0 min 2 min 0 W/m 22,5 km/h (4 Bft) 100,00 %
06.03.2019 23:38 10,1 C 8,3 C 7,8 C 91 % 991,7 hPa 0,0 l/m 0 min 2 min 0 W/m 12,9 km/h (3 Bft) 100,00 %
06.03.2019 23:40 10,1 C 8,3 C 7,8 C 91 % 991,7 hPa 0,0 l/m 0 min 0 min 0 W/m 9,7 km/h (2 Bft) 97,87 %
06.03.2019 23:42 10,1 C 8,3 C 7,8 C 91 % 991,6 hPa 0,0 l/m 0 min 2 min 0 W/m 12,9 km/h (3 Bft) 100,00 %
06.03.2019 23:44 10,1 C 8,3 C 7,8 C 91 % 991,6 hPa 0,0 l/m 0 min 0 min 0 W/m 12,9 km/h (3 Bft) 97,87 %
06.03.2019 23:46 10,1 C 8,3 C 7,8 C 91 % 991,6 hPa 0,0 l/m 0 min 0 min 0 W/m 16,1 km/h (3 Bft) 100,00 %
06.03.2019 23:48 10,1 C 8,3 C 7,8 C 91 % 991,6 hPa 0,0 l/m 0 min 0 min 0 W/m 9,7 km/h (2 Bft) 97,87 %
06.03.2019 23:50 10,1 C 8,3 C 7,8 C 91 % 991,5 hPa 0,0 l/m 0 min 2 min 0 W/m 12,9 km/h (3 Bft) 95,74 %
06.03.2019 23:52 10,1 C 8,3 C 7,8 C 91 % 991,5 hPa 0,0 l/m 0 min 2 min 0 W/m 19,3 km/h (3 Bft) 97,87 %
06.03.2019 23:54 10,1 C 8,3 C 7,8 C 91 % 991,3 hPa 0,0 l/m 0 min 2 min 0 W/m 16,1 km/h (3 Bft) 97,87 %
06.03.2019 23:56 10,1 C 8,3 C 7,8 C 91 % 991,3 hPa 0,0 l/m 0 min 0 min 0 W/m 16,1 km/h (3 Bft) 97,83 %
06.03.2019 23:58 10,1 C 8,9 C 7,8 C 91 % 991,3 hPa 0,0 l/m 0 min 0 min 0 W/m 25,7 km/h (4 Bft) 97,87 %
_ Min-Zeit 00:00 01:20 01:24 13:22 23:54 - - - - 02:00 17:30
Minimum _ 5,6 C 4,4 C 3,9 C 68 % 991,3 hPa - - - - 3,2 km/h (1 Bft) 84,78 %
_ Max-Zeit 13:16 13:10 13:08 03:12 00:00 01:50 09:18 18:07 13:10 11:10 00:38
Maximum _ 12,4 C 13,9 C 13,3 C 94 % 1007,0 hPa 0,2 l/m 2 min 3 min 470 W/m 54,7 km/h
O-NO (7 Bft)
100,00 %
Durchschnitt _ 9,3 C 8,3 C 7,8 C 85 % 998,6 hPa #3,2 l/m #1:26 h #9:36 h 126 W/m 22,6 km/h (4 Bft) 97,30 %
© 2019 W. Hausmann